Wetterdaten: Freitag, 29.04.2016
Datum Zeit Temp. Aussen Temp. o. S. +5cm Feuchte Auss BlattFeu 1 Luftdruck Regen Sonnenschein Regendauer Solar Windben Empfang
29.04.2016 00:00 3,6 C 3,3 C 2,2 C 94 % 13 lf 1014,3 hPa 0,0 l/m 0 min 0 min 0 W/m 10,5 km/h (2 Bft) 89,13 %
29.04.2016 00:02 3,6 C 3,3 C 2,2 C 94 % 13 lf 1014,3 hPa 0,0 l/m 0 min 0 min 0 W/m 10,5 km/h (2 Bft) 100,00 %
29.04.2016 00:06 3,6 C 3,3 C 2,2 C 94 % 13 lf 1014,3 hPa 0,0 l/m 0 min 0 min 0 W/m 14,6 km/h (3 Bft) 95,79 %
29.04.2016 00:08 3,6 C 3,3 C 2,2 C 94 % 13 lf 1014,2 hPa 0,0 l/m 0 min 0 min 0 W/m 6,3 km/h (2 Bft) 97,87 %
29.04.2016 00:10 3,6 C 3,3 C 2,2 C 94 % 13 lf 1014,2 hPa 0,0 l/m 0 min 0 min 0 W/m 10,5 km/h (2 Bft) 93,62 %
29.04.2016 00:12 3,6 C 3,3 C 2,2 C 94 % 13 lf 1014,2 hPa 0,0 l/m 0 min 0 min 0 W/m 8,4 km/h (2 Bft) 95,65 %
29.04.2016 00:14 3,6 C 3,3 C 2,2 C 94 % 13 lf 1014,2 hPa 0,0 l/m 0 min 0 min 0 W/m 8,4 km/h (2 Bft) 97,87 %
29.04.2016 00:16 3,6 C 3,3 C 2,2 C 94 % 13 lf 1014,2 hPa 0,0 l/m 0 min 0 min 0 W/m 8,4 km/h (2 Bft) 93,62 %
29.04.2016 00:18 3,6 C 3,3 C 2,2 C 94 % 13 lf 1014,2 hPa 0,0 l/m 0 min 0 min 0 W/m 10,5 km/h (2 Bft) 95,74 %
29.04.2016 00:20 3,6 C 3,3 C 2,2 C 94 % 12 lf 1014,3 hPa 0,0 l/m 0 min 0 min 0 W/m 8,4 km/h (2 Bft) 95,74 %
29.04.2016 00:22 3,6 C 3,3 C 2,2 C 94 % 12 lf 1014,2 hPa 0,0 l/m 0 min 0 min 0 W/m 10,5 km/h (2 Bft) 95,74 %
29.04.2016 00:24 3,6 C 3,3 C 2,2 C 94 % 12 lf 1014,2 hPa 0,0 l/m 0 min 0 min 0 W/m 8,4 km/h (2 Bft) 91,30 %
29.04.2016 00:26 3,6 C 3,3 C 2,2 C 94 % 12 lf 1014,2 hPa 0,0 l/m 0 min 0 min 0 W/m 10,5 km/h (2 Bft) 93,62 %
29.04.2016 00:28 3,6 C 3,3 C 2,2 C 94 % 12 lf 1014,2 hPa 0,0 l/m 0 min 0 min 0 W/m 8,4 km/h (2 Bft) 93,62 %
29.04.2016 00:30 3,6 C 3,3 C 2,2 C 94 % 12 lf 1014,2 hPa 0,0 l/m 0 min 0 min 0 W/m 8,4 km/h (2 Bft) 93,62 %
29.04.2016 00:32 3,6 C 3,3 C 2,2 C 94 % 12 lf 1014,2 hPa 0,0 l/m 0 min 0 min 0 W/m 8,4 km/h (2 Bft) 93,62 %
29.04.2016 00:34 3,6 C 3,3 C 1,7 C 94 % 12 lf 1014,2 hPa 0,0 l/m 0 min 0 min 0 W/m 6,3 km/h (2 Bft) 87,23 %
29.04.2016 00:36 3,5 C 3,3 C 1,7 C 94 % 12 lf 1014,2 hPa 0,0 l/m 0 min 0 min 0 W/m 8,4 km/h (2 Bft) 93,48 %
29.04.2016 00:38 3,5 C 3,3 C 1,7 C 94 % 12 lf 1014,2 hPa 0,0 l/m 0 min 0 min 0 W/m 10,5 km/h (2 Bft) 91,49 %
29.04.2016 00:40 3,5 C 3,3 C 1,7 C 94 % 12 lf 1014,2 hPa 0,0 l/m 0 min 0 min 0 W/m 6,3 km/h (2 Bft) 93,62 %
29.04.2016 00:42 3,4 C 3,3 C 1,7 C 94 % 12 lf 1014,1 hPa 0,0 l/m 0 min 0 min 0 W/m 6,3 km/h (2 Bft) 93,62 %
29.04.2016 00:44 3,4 C 3,3 C 1,7 C 94 % 12 lf 1014,1 hPa 0,0 l/m 0 min 0 min 0 W/m 6,3 km/h (2 Bft) 97,87 %
29.04.2016 00:46 3,4 C 2,8 C 1,7 C 94 % 12 lf 1014,1 hPa 0,0 l/m 0 min 0 min 0 W/m 8,4 km/h (2 Bft) 93,48 %
29.04.2016 00:48 3,4 C 2,8 C 1,7 C 94 % 12 lf 1014,1 hPa 0,0 l/m 0 min 0 min 0 W/m 8,4 km/h (2 Bft) 93,62 %
29.04.2016 00:50 3,4 C 3,3 C 1,7 C 94 % 12 lf 1014,1 hPa 0,0 l/m 0 min 0 min 0 W/m 8,4 km/h (2 Bft) 91,49 %
29.04.2016 00:52 3,4 C 3,3 C 1,7 C 94 % 12 lf 1014,0 hPa 0,0 l/m 0 min 0 min 0 W/m 8,4 km/h (2 Bft) 97,87 %
29.04.2016 00:54 3,3 C 3,3 C 1,7 C 94 % 12 lf 1014,1 hPa 0,0 l/m 0 min 0 min 0 W/m 8,4 km/h (2 Bft) 97,87 %
29.04.2016 00:56 3,3 C 3,3 C 1,7 C 94 % 12 lf 1014,1 hPa 0,0 l/m 0 min 0 min 0 W/m 10,5 km/h (2 Bft) 95,74 %
29.04.2016 00:58 3,3 C 3,3 C 1,7 C 94 % 12 lf 1014,0 hPa 0,0 l/m 0 min 0 min 0 W/m 12,6 km/h (3 Bft) 95,65 %
29.04.2016 01:00 3,3 C 3,3 C 1,7 C 94 % 11 lf 1014,0 hPa 0,0 l/m 0 min 0 min 0 W/m 8,4 km/h (2 Bft) 97,87 %
29.04.2016 01:02 3,3 C 3,3 C 1,7 C 94 % 11 lf 1014,1 hPa 0,0 l/m 0 min 0 min 0 W/m 8,4 km/h (2 Bft) 97,87 %
29.04.2016 01:04 3,3 C 3,3 C 1,7 C 94 % 11 lf 1014,1 hPa 0,0 l/m 0 min 0 min 0 W/m 8,4 km/h (2 Bft) 95,74 %
29.04.2016 01:06 3,2 C 2,8 C 1,7 C 94 % 11 lf 1014,1 hPa 0,0 l/m 0 min 0 min 0 W/m 10,5 km/h (2 Bft) 100,00 %
29.04.2016 01:08 3,2 C 2,8 C 1,7 C 94 % 11 lf 1014,1 hPa 0,0 l/m 0 min 0 min 0 W/m 8,4 km/h (2 Bft) 97,87 %
29.04.2016 01:10 3,2 C 2,8 C 1,7 C 94 % 11 lf 1014,1 hPa 0,0 l/m 0 min 0 min 0 W/m 8,4 km/h (2 Bft) 97,83 %
29.04.2016 01:12 3,2 C 2,8 C 1,7 C 94 % 11 lf 1014,1 hPa 0,0 l/m 0 min 0 min 0 W/m 10,5 km/h (2 Bft) 97,87 %
29.04.2016 01:14 3,2 C 2,8 C 1,7 C 94 % 11 lf 1014,1 hPa 0,0 l/m 0 min 0 min 0 W/m 10,5 km/h (2 Bft) 97,87 %
29.04.2016 01:16 3,2 C 2,8 C 1,7 C 94 % 10 lf 1014,1 hPa 0,0 l/m 0 min 0 min 0 W/m 10,5 km/h (2 Bft) 100,00 %
29.04.2016 01:18 3,2 C 2,8 C 1,7 C 94 % 10 lf 1014,1 hPa 0,0 l/m 0 min 0 min 0 W/m 8,4 km/h (2 Bft) 95,74 %
29.04.2016 01:20 3,1 C 2,8 C 1,7 C 94 % 10 lf 1014,0 hPa 0,0 l/m 0 min 0 min 0 W/m 8,4 km/h (2 Bft) 100,00 %
29.04.2016 01:22 3,1 C 2,8 C 1,7 C 94 % 10 lf 1014,1 hPa 0,0 l/m 0 min 0 min 0 W/m 8,4 km/h (2 Bft) 97,83 %
29.04.2016 01:24 3,1 C 2,8 C 1,7 C 94 % 10 lf 1014,1 hPa 0,0 l/m 0 min 0 min 0 W/m 8,4 km/h (2 Bft) 97,87 %
29.04.2016 01:26 3,1 C 2,8 C 1,7 C 94 % 10 lf 1014,0 hPa 0,0 l/m 0 min 0 min 0 W/m 10,5 km/h (2 Bft) 93,62 %
29.04.2016 01:28 3,1 C 2,8 C 1,7 C 94 % 10 lf 1014,0 hPa 0,0 l/m 0 min 0 min 0 W/m 10,5 km/h (2 Bft) 95,74 %
29.04.2016 01:30 3,1 C 2,8 C 1,7 C 94 % 10 lf 1014,0 hPa 0,0 l/m 0 min 0 min 0 W/m 8,4 km/h (2 Bft) 97,87 %
29.04.2016 01:32 3,1 C 2,8 C 1,7 C 94 % 10 lf 1013,9 hPa 0,0 l/m 0 min 0 min 0 W/m 10,5 km/h (2 Bft) 97,87 %
29.04.2016 01:34 3,1 C 2,8 C 1,7 C 94 % 10 lf 1014,0 hPa 0,0 l/m 0 min 0 min 0 W/m 10,5 km/h (2 Bft) 95,65 %
29.04.2016 01:36 3,1 C 2,8 C 1,7 C 94 % 9 lf 1013,9 hPa 0,0 l/m 0 min 0 min 0 W/m 12,6 km/h (3 Bft) 95,74 %
29.04.2016 01:38 3,1 C 2,8 C 1,7 C 94 % 9 lf 1013,9 hPa 0,0 l/m 0 min 0 min 0 W/m 10,5 km/h (2 Bft) 93,62 %
29.04.2016 01:40 3,0 C 2,8 C 1,7 C 94 % 9 lf 1013,9 hPa 0,0 l/m 0 min 0 min 0 W/m 8,4 km/h (2 Bft) 97,87 %
29.04.2016 01:42 3,0 C 2,8 C 1,7 C 94 % 9 lf 1013,8 hPa 0,0 l/m 0 min 0 min 0 W/m 10,5 km/h (2 Bft) 95,74 %
29.04.2016 01:44 3,0 C 2,8 C 1,7 C 94 % 9 lf 1013,9 hPa 0,0 l/m 0 min 0 min 0 W/m 10,5 km/h (2 Bft) 97,87 %
29.04.2016 01:46 3,0 C 2,8 C 1,7 C 94 % 9 lf 1013,8 hPa 0,0 l/m 0 min 0 min 0 W/m 10,5 km/h (2 Bft) 95,65 %
29.04.2016 01:48 3,0 C 2,8 C 1,7 C 94 % 8 lf 1013,9 hPa 0,0 l/m 0 min 0 min 0 W/m 10,5 km/h (2 Bft) 95,74 %
29.04.2016 01:50 3,0 C 2,8 C 1,7 C 94 % 8 lf 1013,9 hPa 0,0 l/m 0 min 0 min 0 W/m 10,5 km/h (2 Bft) 97,87 %
29.04.2016 01:52 3,0 C 2,8 C 1,7 C 94 % 8 lf 1013,9 hPa 0,0 l/m 0 min 0 min 0 W/m 10,5 km/h (2 Bft) 97,87 %
29.04.2016 01:54 2,9 C 2,8 C 1,7 C 94 % 7 lf 1013,8 hPa 0,0 l/m 0 min 0 min 0 W/m 10,5 km/h (2 Bft) 95,74 %
29.04.2016 01:56 2,9 C 2,8 C 1,7 C 94 % 7 lf 1013,8 hPa 0,0 l/m 0 min 0 min 0 W/m 8,4 km/h (2 Bft) 97,83 %
29.04.2016 01:58 2,9 C 2,8 C 1,7 C 94 % 7 lf 1013,8 hPa 0,0 l/m 0 min 0 min 0 W/m 8,4 km/h (2 Bft) 93,62 %
29.04.2016 02:00 2,9 C 2,8 C 1,7 C 94 % 6 lf 1013,9 hPa 0,0 l/m 0 min 0 min 0 W/m 8,4 km/h (2 Bft) 95,74 %
29.04.2016 02:02 2,9 C 2,8 C 1,7 C 94 % 6 lf 1013,7 hPa 0,0 l/m 0 min 0 min 0 W/m 10,5 km/h (2 Bft) 95,74 %
29.04.2016 02:04 2,9 C 2,8 C 1,7 C 94 % 5 lf 1013,7 hPa 0,0 l/m 0 min 0 min 0 W/m 10,5 km/h (2 Bft) 93,62 %
29.04.2016 02:06 2,9 C 2,8 C 1,7 C 94 % 5 lf 1013,7 hPa 0,0 l/m 0 min 0 min 0 W/m 8,4 km/h (2 Bft) 97,87 %
29.04.2016 02:08 3,0 C 2,8 C 1,7 C 94 % 4 lf 1013,7 hPa 0,0 l/m 0 min 0 min 0 W/m 8,4 km/h (2 Bft) 95,65 %
29.04.2016 02:10 2,9 C 2,8 C 1,7 C 94 % 4 lf 1013,7 hPa 0,0 l/m 0 min 0 min 0 W/m 8,4 km/h (2 Bft) 91,49 %
29.04.2016 02:12 2,9 C 2,8 C 1,7 C 94 % 4 lf 1013,7 hPa 0,0 l/m 0 min 0 min 0 W/m 8,4 km/h (2 Bft) 95,74 %
29.04.2016 02:14 2,9 C 2,8 C 1,7 C 94 % 4 lf 1013,7 hPa 0,0 l/m 0 min 0 min 0 W/m 8,4 km/h (2 Bft) 95,74 %
29.04.2016 02:16 2,9 C 2,8 C 1,7 C 94 % 4 lf 1013,7 hPa 0,0 l/m 0 min 0 min 0 W/m 10,5 km/h (2 Bft) 93,62 %
29.04.2016 02:18 2,9 C 2,8 C 1,7 C 94 % 4 lf 1013,7 hPa 0,0 l/m 0 min 0 min 0 W/m 8,4 km/h (2 Bft) 93,62 %
29.04.2016 02:20 2,9 C 2,8 C 1,7 C 95 % 4 lf 1013,7 hPa 0,0 l/m 0 min 0 min 0 W/m 8,4 km/h (2 Bft) 93,48 %
29.04.2016 02:22 2,9 C 2,8 C 1,7 C 95 % 4 lf 1013,7 hPa 0,0 l/m 0 min 0 min 0 W/m 8,4 km/h (2 Bft) 93,62 %
29.04.2016 02:24 2,9 C 2,8 C 1,7 C 95 % 4 lf 1013,7 hPa 0,0 l/m 0 min 0 min 0 W/m 10,5 km/h (2 Bft) 95,74 %
29.04.2016 02:26 2,9 C 2,8 C 1,1 C 95 % 3 lf 1013,7 hPa 0,0 l/m 0 min 0 min 0 W/m 8,4 km/h (2 Bft) 93,62 %
29.04.2016 02:28 2,9 C 2,8 C 1,1 C 94 % 3 lf 1013,7 hPa 0,0 l/m 0 min 0 min 0 W/m 8,4 km/h (2 Bft) 97,87 %
29.04.2016 02:30 2,9 C 2,8 C 1,1 C 94 % 3 lf 1013,7 hPa 0,0 l/m 0 min 0 min 0 W/m 10,5 km/h (2 Bft) 95,74 %
29.04.2016 02:32 2,9 C 2,8 C 1,1 C 94 % 3 lf 1013,6 hPa 0,0 l/m 0 min 0 min 0 W/m 8,4 km/h (2 Bft) 89,13 %
29.04.2016 02:34 2,8 C 2,8 C 1,1 C 94 % 3 lf 1013,5 hPa 0,0 l/m 0 min 0 min 0 W/m 8,4 km/h (2 Bft) 95,74 %
29.04.2016 02:36 2,8 C 2,8 C 1,1 C 94 % 3 lf 1013,6 hPa 0,0 l/m 0 min 0 min 0 W/m 8,4 km/h (2 Bft) 93,62 %
29.04.2016 02:38 2,8 C 2,8 C 1,1 C 94 % 3 lf 1013,6 hPa 0,0 l/m 0 min 0 min 0 W/m 8,4 km/h (2 Bft) 97,87 %
29.04.2016 02:40 2,8 C 2,8 C 1,1 C 94 % 3 lf 1013,6 hPa 0,0 l/m 0 min 0 min 0 W/m 8,4 km/h (2 Bft) 97,87 %
29.04.2016 02:42 2,8 C 2,8 C 1,1 C 94 % 3 lf 1013,6 hPa 0,0 l/m 0 min 0 min 0 W/m 8,4 km/h (2 Bft) 95,74 %
29.04.2016 02:44 2,8 C 2,8 C 1,1 C 94 % 2 lf 1013,6 hPa 0,0 l/m 0 min 0 min 0 W/m 10,5 km/h (2 Bft) 95,65 %
29.04.2016 02:46 2,8 C 2,8 C 1,1 C 94 % 2 lf 1013,6 hPa 0,0 l/m 0 min 0 min 0 W/m 8,4 km/h (2 Bft) 100,00 %
29.04.2016 02:48 2,8 C 2,8 C 1,1 C 94 % 2 lf 1013,6 hPa 0,0 l/m 0 min 0 min 0 W/m 8,4 km/h (2 Bft) 97,87 %
29.04.2016 02:50 2,8 C 2,8 C 1,1 C 94 % 2 lf 1013,6 hPa 0,0 l/m 0 min 0 min 0 W/m 8,4 km/h (2 Bft) 91,49 %
29.04.2016 02:52 2,7 C 2,8 C 1,1 C 94 % 1 lf 1013,5 hPa 0,0 l/m 0 min 0 min 0 W/m 8,4 km/h (2 Bft) 100,00 %
29.04.2016 02:54 2,7 C 2,8 C 1,1 C 94 % 1 lf 1013,5 hPa 0,0 l/m 0 min 0 min 0 W/m 8,4 km/h (2 Bft) 91,30 %
29.04.2016 02:56 2,7 C 2,8 C 1,1 C 94 % 1 lf 1013,5 hPa 0,0 l/m 0 min 0 min 0 W/m 8,4 km/h (2 Bft) 97,87 %
29.04.2016 02:58 2,7 C 2,8 C 1,1 C 94 % 1 lf 1013,5 hPa 0,0 l/m 0 min 0 min 0 W/m 10,5 km/h (2 Bft) 91,49 %
29.04.2016 03:00 2,7 C 2,8 C 1,7 C 94 % 0 lf 1013,5 hPa 0,0 l/m 0 min 0 min 0 W/m 10,5 km/h (2 Bft) 95,74 %
29.04.2016 03:02 2,7 C 2,8 C 1,7 C 94 % 0 lf 1013,6 hPa 0,0 l/m 0 min 0 min 0 W/m 10,5 km/h (2 Bft) 95,74 %
29.04.2016 03:04 2,7 C 2,8 C 1,7 C 94 % 0 lf 1013,5 hPa 0,0 l/m 0 min 0 min 0 W/m 8,4 km/h (2 Bft) 91,49 %
29.04.2016 03:06 2,7 C 2,8 C 1,7 C 94 % 0 lf 1013,4 hPa 0,0 l/m 0 min 0 min 0 W/m 10,5 km/h (2 Bft) 91,30 %
29.04.2016 03:08 2,7 C 2,8 C 1,7 C 94 % 0 lf 1013,4 hPa 0,0 l/m 0 min 0 min 0 W/m 8,4 km/h (2 Bft) 93,62 %
29.04.2016 03:10 2,7 C 2,8 C 1,7 C 94 % 0 lf 1013,5 hPa 0,0 l/m 0 min 0 min 0 W/m 6,3 km/h (2 Bft) 93,62 %
29.04.2016 03:12 2,7 C 2,8 C 1,7 C 94 % 0 lf 1013,4 hPa 0,0 l/m 0 min 0 min 0 W/m 10,5 km/h (2 Bft) 95,74 %
29.04.2016 03:14 2,8 C 2,8 C 1,7 C 94 % 0 lf 1013,4 hPa 0,0 l/m 0 min 0 min 0 W/m 12,6 km/h (3 Bft) 93,62 %
29.04.2016 03:16 2,8 C 2,8 C 1,7 C 94 % 0 lf 1013,4 hPa 0,0 l/m 0 min 0 min 0 W/m 12,6 km/h (3 Bft) 89,36 %
29.04.2016 03:18 2,8 C 2,8 C 1,7 C 94 % 0 lf 1013,4 hPa 0,0 l/m 0 min 0 min 0 W/m 10,5 km/h (2 Bft) 91,30 %
29.04.2016 03:20 2,8 C 3,3 C 1,7 C 94 % 0 lf 1013,4 hPa 0,0 l/m 0 min 0 min 0 W/m 12,6 km/h (3 Bft) 95,74 %
29.04.2016 03:22 2,8 C 3,3 C 1,7 C 94 % 0 lf 1013,3 hPa 0,0 l/m 0 min 0 min 0 W/m 12,6 km/h (3 Bft) 93,62 %
29.04.2016 03:24 2,8 C 3,3 C 1,7 C 94 % 0 lf 1013,3 hPa 0,0 l/m 0 min 0 min 0 W/m 10,5 km/h (2 Bft) 93,62 %
29.04.2016 03:26 2,8 C 3,3 C 1,7 C 94 % 0 lf 1013,3 hPa 0,0 l/m 0 min 0 min 0 W/m 12,6 km/h (3 Bft) 97,87 %
29.04.2016 03:28 2,9 C 3,3 C 1,7 C 94 % 0 lf 1013,2 hPa 0,0 l/m 0 min 0 min 0 W/m 10,5 km/h (2 Bft) 91,49 %
29.04.2016 03:30 2,9 C 3,3 C 1,7 C 94 % 0 lf 1013,2 hPa 0,0 l/m 0 min 0 min 0 W/m 12,6 km/h (3 Bft) 91,30 %
29.04.2016 03:32 2,9 C 3,3 C 1,7 C 94 % 0 lf 1013,2 hPa 0,0 l/m 0 min 0 min 0 W/m 10,5 km/h (2 Bft) 95,74 %
29.04.2016 03:34 2,9 C 3,3 C 1,7 C 94 % 0 lf 1013,1 hPa 0,0 l/m 0 min 0 min 0 W/m 10,5 km/h (2 Bft) 97,87 %
29.04.2016 03:36 2,9 C 3,3 C 1,7 C 94 % 0 lf 1013,2 hPa 0,0 l/m 0 min 0 min 0 W/m 12,6 km/h (3 Bft) 97,87 %
29.04.2016 03:38 2,9 C 3,3 C 1,7 C 94 % 0 lf 1013,2 hPa 0,0 l/m 0 min 0 min 0 W/m 12,6 km/h (3 Bft) 97,83 %
29.04.2016 03:40 3,0 C 3,3 C 1,7 C 94 % 0 lf 1013,1 hPa 0,0 l/m 0 min 0 min 0 W/m 10,5 km/h (2 Bft) 95,74 %
29.04.2016 03:42 3,0 C 3,3 C 1,7 C 94 % 0 lf 1013,1 hPa 0,0 l/m 0 min 0 min 0 W/m 12,6 km/h (3 Bft) 97,83 %
29.04.2016 03:44 3,0 C 3,3 C 1,7 C 94 % 0 lf 1013,2 hPa 0,0 l/m 0 min 0 min 0 W/m 12,6 km/h (3 Bft) 93,62 %
29.04.2016 03:46 3,0 C 3,3 C 1,7 C 94 % 0 lf 1013,1 hPa 0,0 l/m 0 min 0 min 0 W/m 14,6 km/h (3 Bft) 97,87 %
29.04.2016 03:48 3,1 C 3,3 C 1,7 C 94 % 0 lf 1013,1 hPa 0,0 l/m 0 min 0 min 0 W/m 14,6 km/h (3 Bft) 95,74 %
29.04.2016 03:50 3,1 C 3,3 C 1,7 C 94 % 0 lf 1013,1 hPa 0,0 l/m 0 min 0 min 0 W/m 12,6 km/h (3 Bft) 97,87 %
29.04.2016 03:52 3,1 C 3,3 C 1,7 C 94 % 0 lf 1013,1 hPa 0,0 l/m 0 min 0 min 0 W/m 16,7 km/h (3 Bft) 100,00 %
29.04.2016 03:54 3,1 C 3,3 C 1,7 C 94 % 0 lf 1013,1 hPa 0,0 l/m 0 min 0 min 0 W/m 12,6 km/h (3 Bft) 100,00 %
29.04.2016 03:56 3,1 C 3,3 C 1,7 C 94 % 0 lf 1013,1 hPa 0,0 l/m 0 min 0 min 0 W/m 12,6 km/h (3 Bft) 97,87 %
29.04.2016 03:58 3,1 C 3,3 C 1,7 C 93 % 0 lf 1013,1 hPa 0,0 l/m 0 min 0 min 0 W/m 20,9 km/h (4 Bft) 93,62 %
29.04.2016 04:00 3,2 C 3,3 C 1,7 C 93 % 0 lf 1013,1 hPa 0,0 l/m 0 min 0 min 0 W/m 12,6 km/h (3 Bft) 93,62 %
29.04.2016 04:02 3,2 C 3,3 C 1,7 C 93 % 0 lf 1013,0 hPa 0,0 l/m 0 min 0 min 0 W/m 14,6 km/h (3 Bft) 100,00 %
29.04.2016 04:04 3,2 C 3,3 C 1,7 C 93 % 0 lf 1013,0 hPa 0,0 l/m 0 min 0 min 0 W/m 18,8 km/h (3 Bft) 93,48 %
29.04.2016 04:06 3,2 C 3,3 C 1,7 C 93 % 0 lf 1012,9 hPa 0,0 l/m 0 min 0 min 0 W/m 16,7 km/h (3 Bft) 95,74 %
29.04.2016 04:08 3,3 C 3,3 C 1,7 C 93 % 0 lf 1013,0 hPa 0,0 l/m 0 min 0 min 0 W/m 16,7 km/h (3 Bft) 97,87 %
29.04.2016 04:10 3,3 C 3,3 C 1,7 C 93 % 0 lf 1013,0 hPa 0,0 l/m 0 min 0 min 0 W/m 14,6 km/h (3 Bft) 95,74 %
29.04.2016 04:12 3,3 C 3,9 C 1,7 C 93 % 0 lf 1013,0 hPa 0,0 l/m 0 min 0 min 0 W/m 18,8 km/h (3 Bft) 95,74 %
29.04.2016 04:14 3,4 C 3,9 C 1,7 C 93 % 0 lf 1013,0 hPa 0,0 l/m 0 min 0 min 0 W/m 16,7 km/h (3 Bft) 97,87 %
29.04.2016 04:16 3,4 C 3,9 C 1,7 C 93 % 0 lf 1012,9 hPa 0,0 l/m 0 min 0 min 0 W/m 18,8 km/h (3 Bft) 95,65 %
29.04.2016 04:18 3,5 C 3,9 C 2,2 C 93 % 0 lf 1012,8 hPa 0,0 l/m 0 min 0 min 0 W/m 16,7 km/h (3 Bft) 95,74 %
29.04.2016 04:20 3,5 C 3,9 C 2,2 C 93 % 0 lf 1012,9 hPa 0,0 l/m 0 min 0 min 0 W/m 14,6 km/h (3 Bft) 97,87 %
29.04.2016 04:22 3,6 C 3,9 C 1,7 C 93 % 0 lf 1012,9 hPa 0,0 l/m 0 min 0 min 0 W/m 10,5 km/h (2 Bft) 97,87 %
29.04.2016 04:24 3,6 C 3,3 C 1,7 C 92 % 0 lf 1012,9 hPa 0,0 l/m 0 min 0 min 0 W/m 12,6 km/h (3 Bft) 95,74 %
29.04.2016 04:26 3,6 C 3,9 C 1,7 C 92 % 0 lf 1012,9 hPa 0,0 l/m 0 min 0 min 0 W/m 12,6 km/h (3 Bft) 100,00 %
29.04.2016 04:28 3,6 C 3,3 C 1,7 C 92 % 0 lf 1012,8 hPa 0,0 l/m 0 min 0 min 0 W/m 12,6 km/h (3 Bft) 91,30 %
29.04.2016 04:30 3,6 C 3,3 C 1,7 C 92 % 0 lf 1012,9 hPa 0,0 l/m 0 min 0 min 0 W/m 12,6 km/h (3 Bft) 97,87 %
29.04.2016 04:32 3,6 C 3,3 C 1,7 C 92 % 0 lf 1012,9 hPa 0,0 l/m 0 min 0 min 0 W/m 10,5 km/h (2 Bft) 100,00 %
29.04.2016 04:34 3,7 C 3,3 C 1,7 C 92 % 0 lf 1012,9 hPa 0,0 l/m 0 min 0 min 0 W/m 14,6 km/h (3 Bft) 100,00 %
29.04.2016 04:36 3,7 C 3,3 C 1,7 C 92 % 0 lf 1012,8 hPa 0,0 l/m 0 min 0 min 0 W/m 12,6 km/h (3 Bft) 100,00 %
29.04.2016 04:38 3,7 C 3,3 C 1,7 C 91 % 0 lf 1012,8 hPa 0,0 l/m 0 min 0 min 0 W/m 12,6 km/h (3 Bft) 100,00 %
29.04.2016 04:40 3,7 C 3,3 C 1,7 C 91 % 0 lf 1012,8 hPa 0,0 l/m 0 min 0 min 0 W/m 12,6 km/h (3 Bft) 97,83 %
29.04.2016 04:42 3,7 C 3,3 C 1,7 C 91 % 0 lf 1012,9 hPa 0,0 l/m 0 min 0 min 0 W/m 14,6 km/h (3 Bft) 97,87 %
29.04.2016 04:44 3,7 C 3,3 C 1,7 C 91 % 0 lf 1012,8 hPa 0,0 l/m 0 min 0 min 0 W/m 12,6 km/h (3 Bft) 97,87 %
29.04.2016 04:46 3,7 C 3,3 C 1,7 C 91 % 0 lf 1012,8 hPa 0,0 l/m 0 min 0 min 0 W/m 10,5 km/h (2 Bft) 100,00 %
29.04.2016 04:48 3,7 C 3,3 C 1,7 C 91 % 0 lf 1012,8 hPa 0,0 l/m 0 min 0 min 0 W/m 12,6 km/h (3 Bft) 100,00 %
29.04.2016 04:50 3,7 C 3,3 C 1,7 C 91 % 0 lf 1012,7 hPa 0,0 l/m 0 min 0 min 0 W/m 12,6 km/h (3 Bft) 100,00 %
29.04.2016 04:52 3,7 C 3,3 C 1,7 C 91 % 0 lf 1012,8 hPa 0,0 l/m 0 min 0 min 0 W/m 14,6 km/h (3 Bft) 100,00 %
29.04.2016 04:54 3,6 C 3,3 C 1,7 C 91 % 0 lf 1012,7 hPa 0,0 l/m 0 min 0 min 0 W/m 12,6 km/h (3 Bft) 100,00 %
29.04.2016 04:56 3,6 C 3,9 C 1,7 C 91 % 0 lf 1012,7 hPa 0,0 l/m 0 min 0 min 0 W/m 14,6 km/h (3 Bft) 97,87 %
29.04.2016 04:58 3,6 C 3,9 C 1,7 C 91 % 0 lf 1012,7 hPa 0,0 l/m 0 min 0 min 0 W/m 12,6 km/h (3 Bft) 100,00 %
29.04.2016 05:00 3,6 C 3,9 C 1,7 C 91 % 0 lf 1012,7 hPa 0,0 l/m 0 min 0 min 0 W/m 14,6 km/h (3 Bft) 97,87 %
29.04.2016 05:02 3,6 C 3,9 C 1,7 C 91 % 0 lf 1012,7 hPa 0,0 l/m 0 min 0 min 0 W/m 12,6 km/h (3 Bft) 100,00 %
29.04.2016 05:04 3,6 C 3,9 C 1,7 C 90 % 0 lf 1012,6 hPa 0,0 l/m 0 min 0 min 0 W/m 12,6 km/h (3 Bft) 97,87 %
29.04.2016 05:06 3,6 C 3,9 C 1,7 C 90 % 0 lf 1012,6 hPa 0,0 l/m 0 min 0 min 0 W/m 14,6 km/h (3 Bft) 97,87 %
29.04.2016 05:08 3,6 C 3,9 C 1,7 C 90 % 0 lf 1012,6 hPa 0,0 l/m 0 min 0 min 0 W/m 12,6 km/h (3 Bft) 95,74 %
29.04.2016 05:10 3,6 C 3,9 C 1,7 C 90 % 0 lf 1012,6 hPa 0,0 l/m 0 min 0 min 0 W/m 12,6 km/h (3 Bft) 100,00 %
29.04.2016 05:12 3,6 C 3,9 C 1,7 C 90 % 0 lf 1012,6 hPa 0,0 l/m 0 min 0 min 0 W/m 12,6 km/h (3 Bft) 97,87 %
29.04.2016 05:14 3,6 C 3,9 C 1,7 C 90 % 0 lf 1012,5 hPa 0,0 l/m 0 min 0 min 0 W/m 10,5 km/h (2 Bft) 100,00 %
29.04.2016 05:16 3,6 C 3,3 C 1,7 C 90 % 0 lf 1012,5 hPa 0,0 l/m 0 min 0 min 0 W/m 10,5 km/h (2 Bft) 93,48 %
29.04.2016 05:18 3,6 C 3,9 C 1,7 C 90 % 0 lf 1012,6 hPa 0,0 l/m 0 min 0 min 0 W/m 10,5 km/h (2 Bft) 95,74 %
29.04.2016 05:20 3,5 C 3,3 C 1,7 C 90 % 0 lf 1012,5 hPa 0,0 l/m 0 min 0 min 0 W/m 10,5 km/h (2 Bft) 97,87 %
29.04.2016 05:22 3,5 C 3,3 C 1,7 C 90 % 0 lf 1012,6 hPa 0,0 l/m 0 min 0 min 0 W/m 12,6 km/h (3 Bft) 95,74 %
29.04.2016 05:24 3,5 C 3,9 C 1,7 C 90 % 0 lf 1012,4 hPa 0,0 l/m 0 min 0 min 0 W/m 14,6 km/h (3 Bft) 95,74 %
29.04.2016 05:26 3,5 C 3,3 C 1,7 C 90 % 0 lf 1012,5 hPa 0,0 l/m 0 min 0 min 0 W/m 12,6 km/h (3 Bft) 93,48 %
29.04.2016 05:28 3,5 C 3,9 C 1,7 C 90 % 0 lf 1012,5 hPa 0,0 l/m 0 min 0 min 0 W/m 14,6 km/h (3 Bft) 93,62 %
29.04.2016 05:30 3,5 C 3,9 C 1,7 C 90 % 0 lf 1012,5 hPa 0,0 l/m 0 min 0 min 0 W/m 12,6 km/h (3 Bft) 97,87 %
29.04.2016 05:32 3,4 C 3,9 C 1,7 C 90 % 0 lf 1012,5 hPa 0,0 l/m 0 min 0 min 0 W/m 12,6 km/h (3 Bft) 93,62 %
29.04.2016 05:34 3,4 C 3,9 C 1,7 C 90 % 0 lf 1012,4 hPa 0,0 l/m 0 min 0 min 0 W/m 12,6 km/h (3 Bft) 95,74 %
29.04.2016 05:36 3,4 C 3,9 C 1,7 C 90 % 0 lf 1012,4 hPa 0,0 l/m 0 min 0 min 0 W/m 12,6 km/h (3 Bft) 97,87 %
29.04.2016 05:38 3,4 C 3,9 C 1,7 C 90 % 0 lf 1012,4 hPa 0,0 l/m 0 min 0 min 0 W/m 16,7 km/h (3 Bft) 93,48 %
29.04.2016 05:40 3,4 C 3,9 C 1,7 C 90 % 0 lf 1012,4 hPa 0,0 l/m 0 min 0 min 0 W/m 12,6 km/h (3 Bft) 95,74 %
29.04.2016 05:42 3,4 C 3,9 C 1,7 C 90 % 0 lf 1012,4 hPa 0,0 l/m 0 min 0 min 0 W/m 14,6 km/h (3 Bft) 100,00 %
29.04.2016 05:44 3,4 C 3,9 C 1,7 C 90 % 0 lf 1012,4 hPa 0,0 l/m 0 min 0 min 0 W/m 16,7 km/h (3 Bft) 95,74 %
29.04.2016 05:46 3,4 C 3,9 C 1,7 C 90 % 0 lf 1012,4 hPa 0,0 l/m 0 min 0 min 0 W/m 14,6 km/h (3 Bft) 95,74 %
29.04.2016 05:48 3,4 C 3,9 C 1,7 C 90 % 0 lf 1012,4 hPa 0,0 l/m 0 min 0 min 0 W/m 16,7 km/h (3 Bft) 93,62 %
29.04.2016 05:50 3,4 C 3,9 C 1,7 C 89 % 0 lf 1012,4 hPa 0,0 l/m 0 min 0 min 0 W/m 14,6 km/h (3 Bft) 91,30 %
29.04.2016 05:52 3,5 C 3,9 C 1,7 C 89 % 0 lf 1012,4 hPa 0,0 l/m 0 min 0 min 0 W/m 14,6 km/h (3 Bft) 93,62 %
29.04.2016 05:54 3,5 C 3,9 C 1,7 C 89 % 0 lf 1012,3 hPa 0,0 l/m 0 min 0 min 0 W/m 20,9 km/h (4 Bft) 93,62 %
29.04.2016 05:56 3,5 C 3,9 C 1,7 C 89 % 0 lf 1012,3 hPa 0,0 l/m 0 min 0 min 0 W/m 18,8 km/h (3 Bft) 93,62 %
29.04.2016 05:58 3,5 C 3,9 C 1,7 C 89 % 0 lf 1012,3 hPa 0,0 l/m 0 min 0 min 0 W/m 16,7 km/h (3 Bft) 93,62 %
29.04.2016 06:00 3,6 C 3,9 C 1,7 C 89 % 0 lf 1012,3 hPa 0,0 l/m 0 min 0 min 0 W/m 16,7 km/h (3 Bft) 95,74 %
29.04.2016 06:02 3,6 C 4,4 C 1,7 C 89 % 0 lf 1012,3 hPa 0,0 l/m 0 min 0 min 0 W/m 20,9 km/h (4 Bft) 95,65 %
29.04.2016 06:04 3,6 C 4,4 C 1,7 C 89 % 0 lf 1012,3 hPa 0,0 l/m 0 min 0 min 0 W/m 23,0 km/h (4 Bft) 95,83 %
29.04.2016 06:06 3,7 C 4,4 C 1,7 C 89 % 0 lf 1012,2 hPa 0,0 l/m 0 min 0 min 1 W/m 18,8 km/h (3 Bft) 91,49 %
29.04.2016 06:08 3,7 C 4,4 C 1,7 C 89 % 0 lf 1012,3 hPa 0,0 l/m 0 min 0 min 5 W/m 18,8 km/h (3 Bft) 91,49 %
29.04.2016 06:10 3,7 C 4,4 C 1,7 C 88 % 0 lf 1012,3 hPa 0,0 l/m 0 min 0 min 5 W/m 20,9 km/h (4 Bft) 91,30 %
29.04.2016 06:12 3,8 C 4,4 C 1,7 C 88 % 0 lf 1012,3 hPa 0,0 l/m 0 min 0 min 5 W/m 18,8 km/h (3 Bft) 91,49 %
29.04.2016 06:14 3,8 C 4,4 C 2,2 C 88 % 0 lf 1012,2 hPa 0,0 l/m 0 min 0 min 7 W/m 25,1 km/h (4 Bft) 91,49 %
29.04.2016 06:16 3,8 C 4,4 C 2,2 C 88 % 0 lf 1012,2 hPa 0,0 l/m 0 min 0 min 7 W/m 20,9 km/h (4 Bft) 95,74 %
29.04.2016 06:18 3,9 C 4,4 C 2,2 C 87 % 0 lf 1012,3 hPa 0,0 l/m 0 min 0 min 9 W/m 20,9 km/h (4 Bft) 95,74 %
29.04.2016 06:20 3,9 C 4,4 C 2,2 C 87 % 0 lf 1012,3 hPa 0,0 l/m 0 min 0 min 9 W/m 23,0 km/h (4 Bft) 91,49 %
29.04.2016 06:22 3,9 C 4,4 C 2,8 C 87 % 0 lf 1012,3 hPa 0,0 l/m 0 min 0 min 11 W/m 18,8 km/h (3 Bft) 93,48 %
29.04.2016 06:24 3,9 C 4,4 C 2,8 C 87 % 0 lf 1012,2 hPa 0,0 l/m 0 min 0 min 11 W/m 23,0 km/h (4 Bft) 89,36 %
29.04.2016 06:26 4,0 C 4,4 C 2,8 C 86 % 0 lf 1012,3 hPa 0,0 l/m 0 min 0 min 12 W/m 20,9 km/h (4 Bft) 95,74 %
29.04.2016 06:28 4,0 C 4,4 C 2,8 C 86 % 0 lf 1012,4 hPa 0,0 l/m 0 min 0 min 13 W/m 23,0 km/h (4 Bft) 95,74 %
29.04.2016 06:30 4,1 C 4,4 C 2,8 C 86 % 0 lf 1012,3 hPa 0,0 l/m 0 min 0 min 14 W/m 16,7 km/h (3 Bft) 95,74 %
29.04.2016 06:32 4,1 C 4,4 C 2,8 C 86 % 0 lf 1012,4 hPa 0,0 l/m 0 min 0 min 15 W/m 23,0 km/h (4 Bft) 93,48 %
29.04.2016 06:34 4,1 C 4,4 C 2,8 C 86 % 0 lf 1012,3 hPa 0,0 l/m 0 min 0 min 17 W/m 27,2 km/h (4 Bft) 91,49 %
29.04.2016 06:36 4,1 C 4,4 C 2,8 C 86 % 0 lf 1012,4 hPa 0,0 l/m 0 min 0 min 18 W/m 20,9 km/h (4 Bft) 95,74 %
29.04.2016 06:38 4,1 C 4,4 C 2,8 C 85 % 0 lf 1012,4 hPa 0,0 l/m 0 min 0 min 20 W/m 16,7 km/h (3 Bft) 91,49 %
29.04.2016 06:40 4,1 C 4,4 C 2,8 C 85 % 0 lf 1012,4 hPa 0,0 l/m 0 min 0 min 26 W/m 16,7 km/h (3 Bft) 95,74 %
29.04.2016 06:42 4,1 C 4,4 C 2,8 C 85 % 0 lf 1012,4 hPa 0,0 l/m 0 min 0 min 32 W/m 14,6 km/h (3 Bft) 91,49 %
29.04.2016 06:44 4,1 C 4,4 C 2,8 C 85 % 0 lf 1012,4 hPa 0,0 l/m 2 min 0 min 37 W/m 14,6 km/h (3 Bft) 95,65 %
29.04.2016 06:46 4,1 C 4,4 C 2,8 C 85 % 0 lf 1012,4 hPa 0,0 l/m 2 min 0 min 41 W/m 14,6 km/h (3 Bft) 95,74 %
29.04.2016 06:48 4,1 C 4,4 C 2,8 C 85 % 0 lf 1012,4 hPa 0,0 l/m 2 min 0 min 44 W/m 16,7 km/h (3 Bft) 95,74 %
29.04.2016 06:50 4,1 C 4,4 C 2,8 C 85 % 0 lf 1012,4 hPa 0,0 l/m 2 min 0 min 49 W/m 14,6 km/h (3 Bft) 95,74 %
29.04.2016 06:52 4,1 C 4,4 C 2,8 C 85 % 0 lf 1012,4 hPa 0,0 l/m 2 min 0 min 52 W/m 16,7 km/h (3 Bft) 95,74 %
29.04.2016 06:54 4,1 C 4,4 C 2,8 C 85 % 0 lf 1012,4 hPa 0,0 l/m 2 min 0 min 57 W/m 20,9 km/h (4 Bft) 95,74 %
29.04.2016 06:56 4,2 C 4,4 C 2,8 C 85 % 0 lf 1012,3 hPa 0,0 l/m 2 min 0 min 61 W/m 18,8 km/h (3 Bft) 93,62 %
29.04.2016 06:58 4,2 C 4,4 C 2,8 C 85 % 0 lf 1012,4 hPa 0,0 l/m 2 min 0 min 66 W/m 18,8 km/h (3 Bft) 95,74 %
29.04.2016 07:00 4,2 C 4,4 C 2,8 C 84 % 0 lf 1012,4 hPa 0,0 l/m 2 min 0 min 71 W/m 20,9 km/h (4 Bft) 93,48 %
29.04.2016 07:02 4,2 C 5,0 C 2,8 C 85 % 0 lf 1012,4 hPa 0,0 l/m 2 min 0 min 76 W/m 20,9 km/h (4 Bft) 95,74 %
29.04.2016 07:04 4,2 C 5,0 C 2,8 C 85 % 0 lf 1012,4 hPa 0,0 l/m 2 min 0 min 80 W/m 14,6 km/h (3 Bft) 95,74 %
29.04.2016 07:06 4,2 C 5,0 C 3,3 C 84 % 0 lf 1012,4 hPa 0,0 l/m 2 min 0 min 85 W/m 18,8 km/h (3 Bft) 95,74 %
29.04.2016 07:08 4,2 C 5,0 C 3,3 C 84 % 0 lf 1012,4 hPa 0,0 l/m 2 min 0 min 90 W/m 14,6 km/h (3 Bft) 100,00 %
29.04.2016 07:10 4,3 C 5,0 C 3,3 C 84 % 0 lf 1012,4 hPa 0,0 l/m 2 min 0 min 96 W/m 18,8 km/h (3 Bft) 97,87 %
29.04.2016 07:12 4,3 C 5,0 C 3,3 C 84 % 0 lf 1012,4 hPa 0,0 l/m 2 min 0 min 102 W/m 16,7 km/h (3 Bft) 97,83 %
29.04.2016 07:14 4,3 C 5,0 C 3,3 C 84 % 0 lf 1012,4 hPa 0,0 l/m 2 min 0 min 107 W/m 18,8 km/h (3 Bft) 100,00 %
29.04.2016 07:16 4,3 C 5,0 C 3,3 C 84 % 0 lf 1012,4 hPa 0,0 l/m 2 min 0 min 112 W/m 16,7 km/h (3 Bft) 97,87 %
29.04.2016 07:18 4,4 C 5,0 C 3,3 C 84 % 0 lf 1012,4 hPa 0,0 l/m 2 min 0 min 118 W/m 18,8 km/h (3 Bft) 97,87 %
29.04.2016 07:20 4,4 C 5,0 C 3,3 C 84 % 0 lf 1012,4 hPa 0,0 l/m 2 min 0 min 125 W/m 20,9 km/h (4 Bft) 100,00 %
29.04.2016 07:22 4,4 C 5,0 C 3,3 C 84 % 0 lf 1012,5 hPa 0,0 l/m 2 min 0 min 132 W/m 25,1 km/h (4 Bft) 93,48 %
29.04.2016 07:24 4,5 C 5,0 C 3,3 C 84 % 0 lf 1012,4 hPa 0,0 l/m 2 min 0 min 138 W/m 18,8 km/h (3 Bft) 95,74 %
29.04.2016 07:26 4,5 C 5,0 C 3,3 C 84 % 0 lf 1012,5 hPa 0,0 l/m 2 min 0 min 146 W/m 20,9 km/h (4 Bft) 95,74 %
29.04.2016 07:28 4,6 C 5,0 C 3,3 C 84 % 0 lf 1012,4 hPa 0,0 l/m 2 min 0 min 152 W/m 23,0 km/h (4 Bft) 100,00 %
29.04.2016 07:30 4,6 C 5,6 C 3,3 C 83 % 0 lf 1012,5 hPa 0,0 l/m 2 min 0 min 159 W/m 23,0 km/h (4 Bft) 95,74 %
29.04.2016 07:32 4,7 C 5,6 C 3,9 C 83 % 0 lf 1012,5 hPa 0,0 l/m 2 min 0 min 164 W/m 20,9 km/h (4 Bft) 97,87 %
29.04.2016 07:34 4,7 C 5,6 C 3,9 C 83 % 0 lf 1012,5 hPa 0,0 l/m 2 min 0 min 173 W/m 25,1 km/h (4 Bft) 93,48 %
29.04.2016 07:36 4,7 C 5,6 C 3,9 C 83 % 0 lf 1012,4 hPa 0,0 l/m 2 min 0 min 179 W/m 25,1 km/h (4 Bft) 97,87 %
29.04.2016 07:38 4,8 C 5,6 C 3,9 C 83 % 0 lf 1012,5 hPa 0,0 l/m 2 min 0 min 181 W/m 18,8 km/h (3 Bft) 93,62 %
29.04.2016 07:40 4,8 C 5,6 C 3,9 C 83 % 0 lf 1012,5 hPa 0,0 l/m 2 min 0 min 192 W/m 25,1 km/h (4 Bft) 97,87 %
29.04.2016 07:42 4,9 C 5,6 C 3,9 C 83 % 0 lf 1012,4 hPa 0,0 l/m 2 min 0 min 199 W/m 20,9 km/h (4 Bft) 95,74 %
29.04.2016 07:44 4,9 C 5,6 C 3,9 C 83 % 0 lf 1012,4 hPa 0,0 l/m 2 min 0 min 205 W/m 18,8 km/h (3 Bft) 93,62 %
29.04.2016 07:46 5,0 C 6,1 C 3,9 C 83 % 0 lf 1012,4 hPa 0,0 l/m 2 min 0 min 213 W/m 20,9 km/h (4 Bft) 93,48 %
29.04.2016 07:48 5,1 C 6,1 C 3,9 C 82 % 0 lf 1012,5 hPa 0,0 l/m 2 min 0 min 219 W/m 18,8 km/h (3 Bft) 95,74 %
29.04.2016 07:50 5,1 C 6,1 C 3,9 C 82 % 0 lf 1012,5 hPa 0,0 l/m 2 min 0 min 224 W/m 25,1 km/h (4 Bft) 95,74 %
29.04.2016 07:52 5,2 C 6,1 C 3,9 C 82 % 0 lf 1012,5 hPa 0,0 l/m 2 min 0 min 230 W/m 23,0 km/h (4 Bft) 91,49 %
29.04.2016 07:54 5,2 C 6,1 C 4,4 C 82 % 0 lf 1012,5 hPa 0,0 l/m 2 min 0 min 235 W/m 25,1 km/h (4 Bft) 93,62 %
29.04.2016 07:56 5,3 C 6,1 C 4,4 C 82 % 0 lf 1012,5 hPa 0,0 l/m 2 min 0 min 240 W/m 23,0 km/h (4 Bft) 93,62 %
29.04.2016 07:58 5,3 C 6,1 C 4,4 C 82 % 0 lf 1012,5 hPa 0,0 l/m 2 min 0 min 246 W/m 27,2 km/h (4 Bft) 93,48 %
29.04.2016 08:00 5,4 C 6,1 C 4,4 C 81 % 0 lf 1012,5 hPa 0,0 l/m 2 min 0 min 252 W/m 18,8 km/h (3 Bft) 95,74 %
29.04.2016 08:02 5,4 C 6,1 C 4,4 C 81 % 0 lf 1012,5 hPa 0,0 l/m 2 min 0 min 257 W/m 16,7 km/h (3 Bft) 95,74 %
29.04.2016 08:04 5,5 C 6,7 C 4,4 C 81 % 0 lf 1012,5 hPa 0,0 l/m 2 min 0 min 264 W/m 16,7 km/h (3 Bft) 95,74 %
29.04.2016 08:06 5,6 C 6,7 C 4,4 C 81 % 0 lf 1012,5 hPa 0,0 l/m 2 min 0 min 271 W/m 20,9 km/h (4 Bft) 95,74 %
29.04.2016 08:08 5,6 C 6,7 C 4,4 C 81 % 0 lf 1012,5 hPa 0,0 l/m 2 min 0 min 279 W/m 23,0 km/h (4 Bft) 95,74 %
29.04.2016 08:10 5,7 C 6,7 C 4,4 C 81 % 0 lf 1012,5 hPa 0,0 l/m 2 min 0 min 286 W/m 27,2 km/h (4 Bft) 95,65 %
29.04.2016 08:12 5,7 C 6,7 C 4,4 C 81 % 0 lf 1012,6 hPa 0,0 l/m 2 min 0 min 292 W/m 18,8 km/h (3 Bft) 95,74 %
29.04.2016 08:14 5,8 C 6,7 C 4,4 C 81 % 0 lf 1012,6 hPa 0,0 l/m 2 min 0 min 300 W/m 23,0 km/h (4 Bft) 97,87 %
29.04.2016 08:16 5,8 C 6,7 C 5,0 C 81 % 0 lf 1012,7 hPa 0,0 l/m 2 min 0 min 307 W/m 20,9 km/h (4 Bft) 97,87 %
29.04.2016 08:18 5,9 C 6,7 C 5,0 C 81 % 0 lf 1012,6 hPa 0,0 l/m 2 min 0 min 314 W/m 14,6 km/h (3 Bft) 95,74 %
29.04.2016 08:20 5,9 C 6,7 C 5,0 C 81 % 0 lf 1012,6 hPa 0,0 l/m 2 min 0 min 322 W/m 23,0 km/h (4 Bft) 97,87 %
29.04.2016 08:22 5,9 C 7,2 C 5,0 C 81 % 0 lf 1012,6 hPa 0,0 l/m 2 min 0 min 334 W/m 23,0 km/h (4 Bft) 97,83 %
29.04.2016 08:24 6,1 C 7,2 C 5,0 C 81 % 0 lf 1012,6 hPa 0,0 l/m 2 min 0 min 348 W/m 31,4 km/h (5 Bft) 95,74 %
29.04.2016 08:26 6,1 C 7,2 C 5,6 C 81 % 0 lf 1012,6 hPa 0,0 l/m 2 min 0 min 368 W/m 23,0 km/h (4 Bft) 100,00 %
29.04.2016 08:28 6,2 C 7,8 C 5,6 C 80 % 0 lf 1012,6 hPa 0,0 l/m 2 min 0 min 393 W/m 25,1 km/h (4 Bft) 97,87 %
29.04.2016 08:30 6,3 C 7,8 C 6,1 C 80 % 0 lf 1012,6 hPa 0,0 l/m 2 min 0 min 428 W/m 16,7 km/h (3 Bft) 97,87 %
29.04.2016 08:32 6,4 C 8,3 C 6,1 C 80 % 0 lf 1012,7 hPa 0,0 l/m 2 min 0 min 462 W/m 16,7 km/h (3 Bft) 100,00 %
29.04.2016 08:34 6,5 C 8,9 C 6,7 C 80 % 0 lf 1012,7 hPa 0,0 l/m 2 min 0 min 497 W/m 14,6 km/h (3 Bft) 97,83 %
29.04.2016 08:36 6,7 C 9,4 C 6,7 C 80 % 0 lf 1012,6 hPa 0,0 l/m 2 min 0 min 470 W/m 18,8 km/h (3 Bft) 100,00 %
29.04.2016 08:38 6,8 C 9,4 C 6,7 C 80 % 0 lf 1012,6 hPa 0,0 l/m 2 min 0 min 317 W/m 33,5 km/h (5 Bft) 100,00 %
29.04.2016 08:40 6,9 C 9,4 C 6,7 C 80 % 0 lf 1012,7 hPa 0,0 l/m 2 min 0 min 200 W/m 25,1 km/h (4 Bft) 100,00 %
29.04.2016 08:42 7,1 C 9,4 C 6,7 C 79 % 0 lf 1012,7 hPa 0,0 l/m 2 min 0 min 204 W/m 27,2 km/h (4 Bft) 97,87 %
29.04.2016 08:44 7,2 C 9,4 C 7,2 C 78 % 0 lf 1012,7 hPa 0,0 l/m 2 min 0 min 275 W/m 31,4 km/h (5 Bft) 100,00 %
29.04.2016 08:46 7,3 C 11,1 C 7,2 C 78 % 0 lf 1012,7 hPa 0,0 l/m 2 min 0 min 371 W/m 25,1 km/h (4 Bft) 100,00 %
29.04.2016 08:48 7,4 C 11,1 C 7,2 C 78 % 0 lf 1012,7 hPa 0,0 l/m 2 min 0 min 488 W/m 31,4 km/h (5 Bft) 100,00 %
29.04.2016 08:50 7,5 C 11,7 C 7,2 C 77 % 0 lf 1012,8 hPa 0,0 l/m 2 min 0 min 457 W/m 20,9 km/h (4 Bft) 100,00 %
29.04.2016 08:52 7,6 C 11,1 C 7,2 C 77 % 0 lf 1012,8 hPa 0,0 l/m 2 min 0 min 548 W/m 31,4 km/h (5 Bft) 100,00 %
29.04.2016 08:54 7,8 C 11,1 C 7,8 C 76 % 0 lf 1012,7 hPa 0,0 l/m 2 min 0 min 547 W/m 25,1 km/h (4 Bft) 100,00 %
29.04.2016 08:56 7,9 C 11,1 C 7,8 C 76 % 0 lf 1012,7 hPa 0,0 l/m 2 min 0 min 398 W/m 20,9 km/h (4 Bft) 93,48 %
29.04.2016 08:58 8,1 C 11,1 C 7,8 C 76 % 0 lf 1012,7 hPa 0,0 l/m 2 min 0 min 258 W/m 27,2 km/h (4 Bft) 100,00 %
29.04.2016 09:00 8,2 C 10,6 C 7,8 C 75 % 0 lf 1012,7 hPa 0,0 l/m 2 min 0 min 268 W/m 39,7 km/h (6 Bft) 93,62 %
29.04.2016 09:02 8,3 C 11,1 C 7,8 C 74 % 0 lf 1012,7 hPa 0,0 l/m 2 min 0 min 288 W/m 23,0 km/h (4 Bft) 100,00 %
29.04.2016 09:04 8,4 C 10,6 C 7,8 C 74 % 0 lf 1012,7 hPa 0,0 l/m 2 min 0 min 281 W/m 18,8 km/h (3 Bft) 100,00 %
29.04.2016 09:06 8,4 C 11,1 C 7,8 C 74 % 0 lf 1012,7 hPa 0,0 l/m 2 min 0 min 268 W/m 37,7 km/h (5 Bft) 97,87 %
29.04.2016 09:08 8,5 C 11,1 C 7,8 C 73 % 0 lf 1012,7 hPa 0,0 l/m 2 min 0 min 344 W/m 25,1 km/h (4 Bft) 100,00 %
29.04.2016 09:10 8,6 C 11,1 C 7,8 C 73 % 0 lf 1012,7 hPa 0,0 l/m 2 min 0 min 292 W/m 31,4 km/h (5 Bft) 97,87 %
29.04.2016 09:12 8,7 C 12,2 C 7,8 C 73 % 0 lf 1012,6 hPa 0,0 l/m 2 min 0 min 327 W/m 20,9 km/h (4 Bft) 100,00 %
29.04.2016 09:14 8,7 C 13,3 C 7,8 C 74 % 0 lf 1012,7 hPa 0,0 l/m 2 min 0 min 433 W/m 20,9 km/h (4 Bft) 100,00 %
29.04.2016 09:16 8,8 C 12,8 C 7,8 C 73 % 0 lf 1012,8 hPa 0,0 l/m 2 min 0 min 398 W/m 35,6 km/h (5 Bft) 97,87 %
29.04.2016 09:18 8,9 C 13,3 C 8,3 C 73 % 0 lf 1012,7 hPa 0,0 l/m 2 min 0 min 475 W/m 33,5 km/h (5 Bft) 100,00 %
29.04.2016 09:20 9,0 C 13,3 C 8,3 C 73 % 0 lf 1012,6 hPa 0,0 l/m 2 min 0 min 331 W/m 18,8 km/h (3 Bft) 97,83 %
29.04.2016 09:22 9,1 C 12,8 C 8,3 C 74 % 0 lf 1012,6 hPa 0,0 l/m 2 min 0 min 275 W/m 35,6 km/h (5 Bft) 93,62 %
29.04.2016 09:24 9,1 C 12,8 C 8,3 C 73 % 0 lf 1012,7 hPa 0,0 l/m 2 min 0 min 250 W/m 27,2 km/h (4 Bft) 97,87 %
29.04.2016 09:26 9,2 C 13,3 C 8,3 C 73 % 0 lf 1012,6 hPa 0,0 l/m 2 min 0 min 490 W/m 33,5 km/h (5 Bft) 97,87 %
29.04.2016 09:28 9,2 C 12,8 C 8,3 C 72 % 0 lf 1012,6 hPa 0,0 l/m 2 min 0 min 365 W/m 27,2 km/h (4 Bft) 97,87 %
29.04.2016 09:30 9,3 C 13,9 C 8,3 C 72 % 0 lf 1012,6 hPa 0,0 l/m 2 min 0 min 372 W/m 23,0 km/h (4 Bft) 95,74 %
29.04.2016 09:32 9,4 C 13,9 C 8,9 C 72 % 0 lf 1012,6 hPa 0,0 l/m 2 min 0 min 454 W/m 35,6 km/h (5 Bft) 93,48 %
29.04.2016 09:34 9,4 C 13,3 C 8,9 C 71 % 0 lf 1012,6 hPa 0,0 l/m 2 min 0 min 296 W/m 23,0 km/h (4 Bft) 95,74 %
29.04.2016 09:36 9,5 C 14,4 C 8,9 C 72 % 0 lf 1012,6 hPa 0,0 l/m 2 min 0 min 459 W/m 18,8 km/h (3 Bft) 97,87 %
29.04.2016 09:38 9,6 C 13,9 C 8,9 C 72 % 0 lf 1012,6 hPa 0,0 l/m 2 min 0 min 483 W/m 37,7 km/h (5 Bft) 91,49 %
29.04.2016 09:40 9,7 C 15,0 C 9,4 C 71 % 0 lf 1012,6 hPa 0,0 l/m 2 min 0 min 574 W/m 35,6 km/h (5 Bft) 95,74 %
29.04.2016 09:42 9,8 C 15,6 C 10,0 C 71 % 0 lf 1012,6 hPa 0,0 l/m 2 min 0 min 657 W/m 29,3 km/h (5 Bft) 95,74 %
29.04.2016 09:44 9,9 C 15,0 C 10,6 C 71 % 0 lf 1012,6 hPa 0,0 l/m 2 min 0 min 657 W/m 31,4 km/h (5 Bft) 97,83 %
29.04.2016 09:46 10,0 C 13,3 C 10,0 C 70 % 0 lf 1012,6 hPa 0,0 l/m 2 min 0 min 395 W/m 35,6 km/h (5 Bft) 95,74 %
29.04.2016 09:48 10,1 C 12,2 C 10,0 C 69 % 0 lf 1012,6 hPa 0,0 l/m 2 min 0 min 292 W/m 46,0 km/h (6 Bft) 89,36 %
29.04.2016 09:50 10,1 C 11,7 C 9,4 C 69 % 0 lf 1012,5 hPa 0,0 l/m 0 min 0 min 241 W/m 27,2 km/h (4 Bft) 93,62 %
29.04.2016 09:52 10,1 C 11,7 C 9,4 C 69 % 0 lf 1012,5 hPa 0,0 l/m 0 min 0 min 232 W/m 31,4 km/h (5 Bft) 95,74 %
29.04.2016 09:54 10,1 C 11,7 C 8,9 C 69 % 0 lf 1012,6 hPa 0,0 l/m 0 min 0 min 241 W/m 31,4 km/h (5 Bft) 95,65 %
29.04.2016 09:56 10,1 C 11,1 C 8,9 C 69 % 0 lf 1012,6 hPa 0,0 l/m 0 min 0 min 219 W/m 37,7 km/h (5 Bft) 93,62 %
29.04.2016 09:58 10,0 C 11,1 C 8,9 C 69 % 0 lf 1012,6 hPa 0,0 l/m 0 min 0 min 239 W/m 20,9 km/h (4 Bft) 97,87 %
29.04.2016 10:00 10,1 C 11,1 C 9,4 C 70 % 0 lf 1012,6 hPa 0,0 l/m 0 min 0 min 260 W/m 33,5 km/h (5 Bft) 95,74 %
29.04.2016 10:02 10,0 C 11,7 C 9,4 C 70 % 0 lf 1012,6 hPa 0,0 l/m 0 min 0 min 257 W/m 33,5 km/h (5 Bft) 87,23 %
29.04.2016 10:04 10,0 C 11,7 C 9,4 C 69 % 0 lf 1012,7 hPa 0,0 l/m 0 min 0 min 236 W/m 25,1 km/h (4 Bft) 93,62 %
29.04.2016 10:06 10,0 C 11,1 C 8,9 C 69 % 0 lf 1012,6 hPa 0,0 l/m 0 min 0 min 216 W/m 31,4 km/h (5 Bft) 89,13 %
29.04.2016 10:08 10,0 C 11,1 C 8,9 C 69 % 0 lf 1012,7 hPa 0,0 l/m 0 min 0 min 200 W/m 20,9 km/h (4 Bft) 95,74 %
29.04.2016 10:10 10,0 C 11,1 C 8,9 C 70 % 0 lf 1012,6 hPa 0,0 l/m 0 min 2 min 227 W/m 27,2 km/h (4 Bft) 91,49 %
29.04.2016 10:12 10,0 C 11,1 C 8,9 C 69 % 0 lf 1012,7 hPa 0,0 l/m 0 min 0 min 256 W/m 31,4 km/h (5 Bft) 93,62 %
29.04.2016 10:14 10,0 C 11,7 C 9,4 C 70 % 0 lf 1012,7 hPa 0,0 l/m 0 min 0 min 262 W/m 29,3 km/h (5 Bft) 95,74 %
29.04.2016 10:16 10,0 C 11,1 C 8,9 C 69 % 0 lf 1012,6 hPa 0,0 l/m 0 min 0 min 183 W/m 33,5 km/h (5 Bft) 97,87 %
29.04.2016 10:18 9,9 C 10,6 C 8,9 C 69 % 0 lf 1012,6 hPa 0,0 l/m 0 min 0 min 140 W/m 31,4 km/h (5 Bft) 95,65 %
29.04.2016 10:20 9,9 C 10,6 C 8,9 C 69 % 0 lf 1012,7 hPa 0,0 l/m 0 min 0 min 151 W/m 23,0 km/h (4 Bft) 93,62 %
29.04.2016 10:22 9,9 C 10,6 C 8,9 C 69 % 0 lf 1012,6 hPa 0,0 l/m 0 min 0 min 160 W/m 29,3 km/h (5 Bft) 89,36 %
29.04.2016 10:24 9,9 C 10,6 C 8,9 C 69 % 0 lf 1012,7 hPa 0,0 l/m 0 min 0 min 174 W/m 18,8 km/h (3 Bft) 93,62 %
29.04.2016 10:26 9,9 C 11,1 C 8,9 C 69 % 0 lf 1012,6 hPa 0,0 l/m 0 min 0 min 192 W/m 23,0 km/h (4 Bft) 95,74 %
29.04.2016 10:28 9,9 C 11,1 C 8,9 C 69 % 0 lf 1012,7 hPa 0,0 l/m 0 min 0 min 207 W/m 33,5 km/h (5 Bft) 95,74 %
29.04.2016 10:30 9,9 C 11,1 C 8,9 C 68 % 0 lf 1012,6 hPa 0,0 l/m 0 min 0 min 198 W/m 29,3 km/h (5 Bft) 95,65 %
29.04.2016 10:32 9,9 C 10,6 C 8,9 C 68 % 0 lf 1012,7 hPa 0,0 l/m 0 min 0 min 196 W/m 33,5 km/h (5 Bft) 95,74 %
29.04.2016 10:34 9,9 C 10,6 C 8,9 C 68 % 0 lf 1012,6 hPa 0,0 l/m 0 min 0 min 194 W/m 37,7 km/h (5 Bft) 95,74 %
29.04.2016 10:36 9,9 C 10,6 C 8,9 C 68 % 0 lf 1012,8 hPa 0,0 l/m 0 min 0 min 184 W/m 39,7 km/h (6 Bft) 95,74 %
29.04.2016 10:38 9,9 C 10,6 C 8,9 C 68 % 0 lf 1012,7 hPa 0,0 l/m 0 min 0 min 203 W/m 35,6 km/h (5 Bft) 93,62 %
29.04.2016 10:40 9,9 C 11,1 C 9,4 C 68 % 0 lf 1012,6 hPa 0,0 l/m 0 min 0 min 221 W/m 33,5 km/h (5 Bft) 89,36 %
29.04.2016 10:42 9,9 C 11,1 C 8,9 C 68 % 0 lf 1012,6 hPa 0,0 l/m 0 min 0 min 220 W/m 37,7 km/h (5 Bft) 93,48 %
29.04.2016 10:44 9,9 C 11,1 C 9,4 C 68 % 0 lf 1012,7 hPa 0,0 l/m 0 min 0 min 225 W/m 27,2 km/h (4 Bft) 93,62 %
29.04.2016 10:46 9,9 C 11,7 C 9,4 C 68 % 0 lf 1012,8 hPa 0,0 l/m 0 min 0 min 247 W/m 33,5 km/h (5 Bft) 95,74 %
29.04.2016 10:48 10,0 C 11,7 C 9,4 C 68 % 0 lf 1012,7 hPa 0,0 l/m 0 min 0 min 262 W/m 33,5 km/h (5 Bft) 93,62 %
29.04.2016 10:50 10,0 C 11,7 C 10,0 C 68 % 0 lf 1012,7 hPa 0,0 l/m 0 min 0 min 280 W/m 20,9 km/h (4 Bft) 95,74 %
29.04.2016 10:52 10,1 C 12,2 C 10,0 C 68 % 0 lf 1012,7 hPa 0,0 l/m 0 min 0 min 273 W/m 25,1 km/h (4 Bft) 93,62 %
29.04.2016 10:54 10,1 C 12,2 C 10,0 C 67 % 0 lf 1012,6 hPa 0,0 l/m 0 min 0 min 278 W/m 29,3 km/h (5 Bft) 95,65 %
29.04.2016 10:56 10,2 C 12,2 C 10,0 C 67 % 0 lf 1012,7 hPa 0,0 l/m 0 min 0 min 291 W/m 18,8 km/h (3 Bft) 95,74 %
29.04.2016 10:58 10,3 C 12,2 C 10,0 C 67 % 0 lf 1012,6 hPa 0,0 l/m 0 min 0 min 319 W/m 33,5 km/h (5 Bft) 93,62 %
29.04.2016 11:00 10,3 C 12,8 C 10,0 C 67 % 0 lf 1012,7 hPa 0,0 l/m 2 min 0 min 334 W/m 33,5 km/h (5 Bft) 89,36 %
29.04.2016 11:02 10,4 C 12,2 C 10,0 C 67 % 0 lf 1012,6 hPa 0,0 l/m 0 min 0 min 325 W/m 35,6 km/h (5 Bft) 95,74 %
29.04.2016 11:04 10,4 C 12,2 C 10,0 C 66 % 0 lf 1012,6 hPa 0,0 l/m 0 min 0 min 300 W/m 35,6 km/h (5 Bft) 95,74 %
29.04.2016 11:06 10,5 C 12,2 C 10,0 C 66 % 0 lf 1012,6 hPa 0,0 l/m 0 min 0 min 270 W/m 39,7 km/h (6 Bft) 97,83 %
29.04.2016 11:08 10,6 C 12,2 C 10,0 C 67 % 0 lf 1012,6 hPa 0,0 l/m 0 min 0 min 264 W/m 27,2 km/h (4 Bft) 95,74 %
29.04.2016 11:10 10,6 C 12,2 C 10,0 C 66 % 0 lf 1012,6 hPa 0,0 l/m 0 min 0 min 271 W/m 37,7 km/h (5 Bft) 97,87 %
29.04.2016 11:12 10,6 C 12,2 C 10,0 C 65 % 0 lf 1012,7 hPa 0,0 l/m 0 min 0 min 286 W/m 41,8 km/h (6 Bft) 97,87 %
29.04.2016 11:14 10,6 C 12,2 C 10,0 C 65 % 0 lf 1012,6 hPa 0,0 l/m 0 min 0 min 291 W/m 29,3 km/h (5 Bft) 100,00 %
29.04.2016 11:16 10,6 C 12,2 C 10,0 C 65 % 0 lf 1012,7 hPa 0,0 l/m 0 min 0 min 308 W/m 39,7 km/h (6 Bft) 100,00 %
29.04.2016 11:18 10,7 C 12,2 C 10,0 C 65 % 0 lf 1012,7 hPa 0,0 l/m 0 min 0 min 320 W/m 39,7 km/h (6 Bft) 100,00 %
29.04.2016 11:20 10,7 C 12,2 C 10,6 C 65 % 0 lf 1012,7 hPa 0,0 l/m 0 min 0 min 316 W/m 41,8 km/h (6 Bft) 95,74 %
29.04.2016 11:22 10,7 C 12,2 C 10,6 C 65 % 0 lf 1012,7 hPa 0,0 l/m 0 min 0 min 318 W/m 41,8 km/h (6 Bft) 100,00 %
29.04.2016 11:24 10,8 C 12,8 C 10,6 C 65 % 0 lf 1012,7 hPa 0,0 l/m 0 min 0 min 324 W/m 23,0 km/h (4 Bft) 100,00 %
29.04.2016 11:26 10,8 C 13,9 C 11,1 C 66 % 0 lf 1012,7 hPa 0,0 l/m 0 min 0 min 344 W/m 18,8 km/h (3 Bft) 100,00 %
29.04.2016 11:28 10,9 C 13,9 C 11,1 C 67 % 0 lf 1012,6 hPa 0,0 l/m 2 min 0 min 352 W/m 18,8 km/h (3 Bft) 97,83 %
29.04.2016 11:30 11,0 C 13,9 C 11,1 C 66 % 0 lf 1012,7 hPa 0,0 l/m 2 min 0 min 376 W/m 27,2 km/h (4 Bft) 95,74 %
29.04.2016 11:32 11,1 C 13,9 C 11,7 C 65 % 0 lf 1012,7 hPa 0,0 l/m 2 min 0 min 403 W/m 23,0 km/h (4 Bft) 97,87 %
29.04.2016 11:34 11,1 C 14,4 C 11,7 C 66 % 0 lf 1012,7 hPa 0,0 l/m 2 min 0 min 401 W/m 23,0 km/h (4 Bft) 97,87 %
29.04.2016 11:36 11,2 C 14,4 C 11,7 C 66 % 0 lf 1012,6 hPa 0,0 l/m 2 min 0 min 363 W/m 29,3 km/h (5 Bft) 100,00 %
29.04.2016 11:38 11,3 C 13,3 C 11,1 C 64 % 0 lf 1012,7 hPa 0,0 l/m 0 min 0 min 332 W/m 27,2 km/h (4 Bft) 95,74 %
29.04.2016 11:40 11,3 C 13,3 C 11,1 C 64 % 0 lf 1012,7 hPa 0,0 l/m 0 min 0 min 343 W/m 50,2 km/h (7 Bft) 100,00 %
29.04.2016 11:42 11,3 C 12,8 C 11,1 C 64 % 0 lf 1012,8 hPa 0,0 l/m 0 min 0 min 335 W/m 46,0 km/h (6 Bft) 97,87 %
29.04.2016 11:44 11,4 C 13,3 C 11,1 C 64 % 0 lf 1012,7 hPa 0,0 l/m 0 min 0 min 333 W/m 25,1 km/h (4 Bft) 97,87 %
29.04.2016 11:46 11,4 C 13,3 C 11,1 C 64 % 0 lf 1012,6 hPa 0,0 l/m 0 min 0 min 302 W/m 39,7 km/h (6 Bft) 95,74 %
29.04.2016 11:48 11,4 C 13,3 C 11,1 C 64 % 0 lf 1012,7 hPa 0,0 l/m 0 min 0 min 293 W/m 41,8 km/h (6 Bft) 97,87 %
29.04.2016 11:50 11,4 C 13,3 C 11,1 C 64 % 0 lf 1012,6 hPa 0,0 l/m 0 min 0 min 304 W/m 31,4 km/h (5 Bft) 91,49 %
29.04.2016 11:52 11,4 C 13,3 C 11,1 C 64 % 0 lf 1012,6 hPa 0,0 l/m 0 min 0 min 310 W/m 29,3 km/h (5 Bft) 100,00 %
29.04.2016 11:54 11,5 C 13,3 C 11,1 C 64 % 0 lf 1012,7 hPa 0,0 l/m 2 min 0 min 367 W/m 20,9 km/h (4 Bft) 95,74 %
29.04.2016 11:56 11,5 C 13,3 C 11,1 C 64 % 0 lf 1012,7 hPa 0,0 l/m 0 min 0 min 324 W/m 31,4 km/h (5 Bft) 97,87 %
29.04.2016 11:58 11,5 C 12,8 C 11,1 C 64 % 0 lf 1012,7 hPa 0,0 l/m 0 min 0 min 244 W/m 37,7 km/h (5 Bft) 91,49 %
29.04.2016 12:00 11,6 C 13,3 C 10,6 C 65 % 0 lf 1012,7 hPa 0,0 l/m 0 min 0 min 249 W/m 20,9 km/h (4 Bft) 95,74 %
29.04.2016 12:02 11,6 C 13,3 C 11,1 C 65 % 0 lf 1012,7 hPa 0,0 l/m 0 min 0 min 307 W/m 27,2 km/h (4 Bft) 97,87 %
29.04.2016 12:04 11,6 C 13,3 C 11,1 C 65 % 0 lf 1012,8 hPa 0,0 l/m 0 min 0 min 339 W/m 35,6 km/h (5 Bft) 97,87 %
29.04.2016 12:06 11,6 C 13,9 C 11,7 C 64 % 0 lf 1012,7 hPa 0,0 l/m 2 min 0 min 377 W/m 41,8 km/h (6 Bft) 93,62 %
29.04.2016 12:08 11,6 C 13,9 C 11,7 C 63 % 0 lf 1012,7 hPa 0,0 l/m 2 min 0 min 401 W/m 39,7 km/h (6 Bft) 93,62 %
29.04.2016 12:10 11,7 C 13,3 C 11,1 C 64 % 0 lf 1012,6 hPa 0,0 l/m 0 min 0 min 340 W/m 39,7 km/h (6 Bft) 91,49 %
29.04.2016 12:12 11,7 C 13,3 C 11,1 C 64 % 0 lf 1012,6 hPa 0,0 l/m 0 min 0 min 323 W/m 23,0 km/h (4 Bft) 95,74 %
29.04.2016 12:14 11,7 C 13,3 C 11,1 C 64 % 0 lf 1012,7 hPa 0,0 l/m 0 min 0 min 352 W/m 35,6 km/h (5 Bft) 93,62 %
29.04.2016 12:16 11,7 C 13,9 C 11,7 C 64 % 0 lf 1012,6 hPa 0,0 l/m 2 min 0 min 446 W/m 39,7 km/h (6 Bft) 95,65 %
29.04.2016 12:18 11,8 C 13,9 C 12,2 C 64 % 0 lf 1012,7 hPa 0,0 l/m 2 min 0 min 446 W/m 37,7 km/h (5 Bft) 95,74 %
29.04.2016 12:20 11,8 C 13,9 C 12,2 C 64 % 0 lf 1012,7 hPa 0,0 l/m 2 min 0 min 424 W/m 46,0 km/h (6 Bft) 97,87 %
29.04.2016 12:22 11,9 C 14,4 C 11,7 C 63 % 0 lf 1012,7 hPa 0,0 l/m 2 min 0 min 455 W/m 39,7 km/h (6 Bft) 97,87 %
29.04.2016 12:24 11,9 C 13,9 C 11,7 C 62 % 0 lf 1012,7 hPa 0,0 l/m 2 min 0 min 406 W/m 37,7 km/h (5 Bft) 95,74 %
29.04.2016 12:26 11,9 C 13,9 C 11,7 C 62 % 0 lf 1012,7 hPa 0,0 l/m 2 min 0 min 382 W/m 37,7 km/h (5 Bft) 97,83 %
29.04.2016 12:28 11,9 C 13,3 C 11,7 C 62 % 0 lf 1012,7 hPa 0,0 l/m 0 min 0 min 342 W/m 39,7 km/h (6 Bft) 97,87 %
29.04.2016 12:30 11,9 C 13,9 C 11,1 C 62 % 0 lf 1012,6 hPa 0,0 l/m 0 min 0 min 329 W/m 37,7 km/h (5 Bft) 97,87 %
29.04.2016 12:32 11,9 C 13,3 C 11,7 C 62 % 0 lf 1012,6 hPa 0,0 l/m 0 min 0 min 319 W/m 35,6 km/h (5 Bft) 97,87 %
29.04.2016 12:34 11,9 C 13,3 C 11,1 C 62 % 0 lf 1012,7 hPa 0,0 l/m 0 min 0 min 305 W/m 37,7 km/h (5 Bft) 97,87 %
29.04.2016 12:36 11,9 C 13,9 C 11,7 C 63 % 0 lf 1012,7 hPa 0,0 l/m 0 min 0 min 359 W/m 27,2 km/h (4 Bft) 97,87 %
29.04.2016 12:38 12,0 C 13,3 C 11,7 C 63 % 0 lf 1012,7 hPa 0,0 l/m 0 min 0 min 347 W/m 31,4 km/h (5 Bft) 95,65 %
29.04.2016 12:40 12,0 C 13,3 C 11,7 C 62 % 0 lf 1012,6 hPa 0,0 l/m 0 min 0 min 345 W/m 43,9 km/h (6 Bft) 97,87 %
29.04.2016 12:42 12,0 C 13,9 C 11,7 C 62 % 0 lf 1012,7 hPa 0,0 l/m 0 min 0 min 349 W/m 29,3 km/h (5 Bft) 95,74 %
29.04.2016 12:44 12,0 C 13,9 C 11,7 C 63 % 0 lf 1012,7 hPa 0,0 l/m 0 min 0 min 315 W/m 18,8 km/h (3 Bft) 95,74 %
29.04.2016 12:46 12,1 C 13,9 C 11,7 C 63 % 0 lf 1012,6 hPa 0,0 l/m 0 min 0 min 274 W/m 14,6 km/h (3 Bft) 93,62 %
29.04.2016 12:48 12,1 C 13,9 C 11,7 C 64 % 0 lf 1012,7 hPa 0,0 l/m 0 min 0 min 259 W/m 18,8 km/h (3 Bft) 97,87 %
29.04.2016 12:50 12,2 C 13,9 C 11,7 C 63 % 0 lf 1012,7 hPa 0,0 l/m 0 min 0 min 208 W/m 16,7 km/h (3 Bft) 95,65 %
29.04.2016 12:52 12,2 C 13,3 C 11,7 C 64 % 0 lf 1012,7 hPa 0,0 l/m 0 min 0 min 176 W/m 20,9 km/h (4 Bft) 97,87 %
29.04.2016 12:54 12,2 C 13,3 C 11,1 C 64 % 0 lf 1012,7 hPa 0,0 l/m 0 min 0 min 165 W/m 20,9 km/h (4 Bft) 97,87 %
29.04.2016 12:56 12,2 C 12,8 C 10,6 C 63 % 0 lf 1012,8 hPa 0,0 l/m 0 min 0 min 152 W/m 31,4 km/h (5 Bft) 97,87 %
29.04.2016 12:58 12,1 C 12,8 C 10,6 C 62 % 0 lf 1012,7 hPa 0,0 l/m 0 min 0 min 141 W/m 31,4 km/h (5 Bft) 100,00 %
29.04.2016 13:00 12,1 C 12,2 C 10,6 C 62 % 0 lf 1012,7 hPa 0,0 l/m 0 min 0 min 142 W/m 25,1 km/h (4 Bft) 100,00 %
29.04.2016 13:02 12,0 C 12,8 C 10,6 C 62 % 0 lf 1012,7 hPa 0,0 l/m 0 min 0 min 150 W/m 31,4 km/h (5 Bft) 97,83 %
29.04.2016 13:04 11,9 C 12,8 C 10,6 C 62 % 0 lf 1012,7 hPa 0,0 l/m 0 min 0 min 167 W/m 23,0 km/h (4 Bft) 100,00 %
29.04.2016 13:06 11,9 C 12,8 C 10,6 C 63 % 0 lf 1012,7 hPa 0,0 l/m 0 min 0 min 165 W/m 25,1 km/h (4 Bft) 93,62 %
29.04.2016 13:08 11,8 C 12,2 C 10,6 C 62 % 0 lf 1012,6 hPa 0,0 l/m 0 min 0 min 147 W/m 43,9 km/h (6 Bft) 97,87 %
29.04.2016 13:10 11,8 C 12,2 C 10,0 C 62 % 0 lf 1012,7 hPa 0,0 l/m 0 min 0 min 125 W/m 31,4 km/h (5 Bft) 97,87 %
29.04.2016 13:12 11,7 C 12,2 C 10,0 C 63 % 0 lf 1012,6 hPa 0,0 l/m 0 min 0 min 115 W/m 31,4 km/h (5 Bft) 97,87 %
29.04.2016 13:14 11,7 C 12,2 C 10,0 C 63 % 0 lf 1012,7 hPa 0,0 l/m 0 min 0 min 101 W/m 25,1 km/h (4 Bft) 97,83 %
29.04.2016 13:16 11,6 C 11,7 C 10,0 C 63 % 0 lf 1012,8 hPa 0,0 l/m 0 min 0 min 91 W/m 31,4 km/h (5 Bft) 95,74 %
29.04.2016 13:18 11,6 C 12,2 C 10,0 C 63 % 0 lf 1012,8 hPa 0,0 l/m 0 min 0 min 91 W/m 31,4 km/h (5 Bft) 97,87 %
29.04.2016 13:20 11,6 C 11,7 C 9,4 C 65 % 0 lf 1013,1 hPa 0,0 l/m 0 min 0 min 92 W/m 23,0 km/h (4 Bft) 100,00 %
29.04.2016 13:22 11,5 C 11,1 C 9,4 C 68 % 0 lf 1013,0 hPa 0,0 l/m 0 min 0 min 97 W/m 27,2 km/h (4 Bft) 97,87 %
29.04.2016 13:24 11,4 C 10,6 C 8,9 C 70 % 0 lf 1013,0 hPa 0,0 l/m 0 min 0 min 110 W/m 33,5 km/h (5 Bft) 100,00 %
29.04.2016 13:26 11,2 C 10,6 C 8,9 C 71 % 1 lf 1013,0 hPa 0,0 l/m 0 min 0 min 142 W/m 16,7 km/h (3 Bft) 97,87 %
29.04.2016 13:28 11,2 C 10,6 C 8,9 C 73 % 0 lf 1013,1 hPa 0,0 l/m 0 min 0 min 157 W/m 29,3 km/h (5 Bft) 97,87 %
29.04.2016 13:30 11,0 C 10,6 C 8,3 C 73 % 0 lf 1013,1 hPa 0,0 l/m 0 min 0 min 150 W/m 20,9 km/h (4 Bft) 100,00 %
29.04.2016 13:32 10,8 C 10,6 C 8,3 C 74 % 0 lf 1013,2 hPa 0,0 l/m 0 min 0 min 125 W/m 20,9 km/h (4 Bft) 95,74 %
29.04.2016 13:34 10,7 C 10,6 C 8,3 C 75 % 0 lf 1013,2 hPa 0,0 l/m 0 min 0 min 121 W/m 18,8 km/h (3 Bft) 97,87 %
29.04.2016 13:36 10,7 C 10,0 C 8,3 C 76 % 0 lf 1013,2 hPa 0,0 l/m 0 min 0 min 120 W/m 23,0 km/h (4 Bft) 95,65 %
29.04.2016 13:38 10,5 C 10,6 C 8,3 C 76 % 0 lf 1013,2 hPa 0,0 l/m 0 min 0 min 113 W/m 12,6 km/h (3 Bft) 93,62 %
29.04.2016 13:40 10,4 C 10,6 C 8,3 C 77 % 1 lf 1013,1 hPa 0,0 l/m 0 min 0 min 139 W/m 20,9 km/h (4 Bft) 93,62 %
29.04.2016 13:42 10,3 C 10,6 C 8,3 C 78 % 0 lf 1013,1 hPa 0,0 l/m 0 min 2 min 164 W/m 16,7 km/h (3 Bft) 93,62 %
29.04.2016 13:44 10,2 C 10,0 C 8,3 C 78 % 0 lf 1013,1 hPa 0,0 l/m 0 min 0 min 154 W/m 14,6 km/h (3 Bft) 95,74 %
29.04.2016 13:46 10,1 C 10,6 C 8,3 C 79 % 0 lf 1013,2 hPa 0,0 l/m 0 min 0 min 157 W/m 10,5 km/h (2 Bft) 91,49 %
29.04.2016 13:48 10,1 C 10,6 C 8,9 C 79 % 0 lf 1013,2 hPa 0,0 l/m 0 min 0 min 159 W/m 8,4 km/h (2 Bft) 91,30 %
29.04.2016 13:50 10,0 C 11,1 C 8,9 C 80 % 0 lf 1013,2 hPa 0,0 l/m 0 min 0 min 163 W/m 4,2 km/h (1 Bft) 91,49 %
29.04.2016 13:52 10,0 C 11,1 C 8,9 C 80 % 0 lf 1013,2 hPa 0,0 l/m 0 min 0 min 177 W/m 10,5 km/h (2 Bft) 93,62 %
29.04.2016 13:54 9,9 C 11,1 C 8,9 C 81 % 0 lf 1013,2 hPa 0,0 l/m 0 min 0 min 197 W/m 16,7 km/h (3 Bft) 93,62 %
29.04.2016 13:56 9,9 C 11,7 C 8,9 C 81 % 0 lf 1013,2 hPa 0,0 l/m 0 min 2 min 221 W/m 10,5 km/h (2 Bft) 93,62 %
29.04.2016 13:58 9,9 C 12,2 C 9,4 C 81 % 0 lf 1013,2 hPa 0,0 l/m 0 min 0 min 245 W/m 10,5 km/h (2 Bft) 93,62 %
29.04.2016 14:00 9,9 C 12,2 C 9,4 C 82 % 0 lf 1013,2 hPa 0,0 l/m 0 min 0 min 272 W/m 18,8 km/h (3 Bft) 93,48 %
29.04.2016 14:02 9,9 C 11,7 C 9,4 C 82 % 0 lf 1013,2 hPa 0,0 l/m 0 min 0 min 245 W/m 14,6 km/h (3 Bft) 91,49 %
29.04.2016 14:04 9,9 C 11,1 C 9,4 C 82 % 0 lf 1013,2 hPa 0,0 l/m 0 min 0 min 174 W/m 14,6 km/h (3 Bft) 93,62 %
29.04.2016 14:06 9,8 C 11,1 C 8,9 C 82 % 0 lf 1013,2 hPa 0,0 l/m 0 min 0 min 169 W/m 14,6 km/h (3 Bft) 93,62 %
29.04.2016 14:08 9,8 C 11,1 C 8,9 C 82 % 0 lf 1013,2 hPa 0,0 l/m 0 min 0 min 201 W/m 14,6 km/h (3 Bft) 91,49 %
29.04.2016 14:10 9,8 C 11,7 C 9,4 C 82 % 0 lf 1013,2 hPa 0,0 l/m 0 min 0 min 208 W/m 6,3 km/h (2 Bft) 93,62 %
29.04.2016 14:12 9,8 C 11,7 C 9,4 C 82 % 0 lf 1013,3 hPa 0,0 l/m 0 min 0 min 183 W/m 8,4 km/h (2 Bft) 91,30 %
29.04.2016 14:14 9,8 C 11,7 C 9,4 C 82 % 0 lf 1013,3 hPa 0,0 l/m 0 min 0 min 177 W/m 10,5 km/h (2 Bft) 95,74 %
29.04.2016 14:16 9,8 C 11,7 C 9,4 C 82 % 0 lf 1013,3 hPa 0,0 l/m 0 min 0 min 199 W/m 8,4 km/h (2 Bft) 95,74 %
29.04.2016 14:19 9,9 C 12,2 C 10,0 C 82 % 0 lf 1013,3 hPa 0,0 l/m 0 min 0 min 266 W/m 16,7 km/h (3 Bft) 94,29 %
29.04.2016 14:20 9,9 C 12,2 C 10,0 C 82 % 0 lf 1013,3 hPa 0,0 l/m 0 min 0 min 302 W/m 12,6 km/h (3 Bft) 100,00 %
29.04.2016 14:22 9,9 C 12,2 C 10,0 C 82 % 0 lf 1013,3 hPa 0,0 l/m 0 min 0 min 292 W/m 18,8 km/h (3 Bft) 93,62 %
29.04.2016 14:24 9,9 C 12,2 C 10,0 C 82 % 0 lf 1013,3 hPa 0,0 l/m 0 min 0 min 292 W/m 14,6 km/h (3 Bft) 97,83 %
29.04.2016 14:26 9,9 C 12,8 C 10,6 C 82 % 0 lf 1013,3 hPa 0,0 l/m 0 min 0 min 350 W/m 12,6 km/h (3 Bft) 91,49 %
29.04.2016 14:28 10,1 C 13,3 C 10,6 C 82 % 0 lf 1013,3 hPa 0,0 l/m 2 min 0 min 442 W/m 10,5 km/h (2 Bft) 97,87 %
29.04.2016 14:30 10,1 C 14,4 C 11,1 C 83 % 0 lf 1013,3 hPa 0,0 l/m 2 min 0 min 439 W/m 14,6 km/h (3 Bft) 91,49 %
29.04.2016 14:32 10,2 C 15,0 C 11,7 C 82 % 0 lf 1013,3 hPa 0,0 l/m 2 min 0 min 425 W/m 10,5 km/h (2 Bft) 97,87 %
29.04.2016 14:34 10,3 C 15,0 C 11,7 C 82 % 0 lf 1013,3 hPa 0,0 l/m 0 min 0 min 370 W/m 14,6 km/h (3 Bft) 97,83 %
29.04.2016 14:36 10,4 C 14,4 C 11,7 C 82 % 0 lf 1013,4 hPa 0,0 l/m 0 min 0 min 340 W/m 16,7 km/h (3 Bft) 95,74 %
29.04.2016 14:38 10,6 C 14,4 C 11,7 C 82 % 0 lf 1013,4 hPa 0,0 l/m 0 min 0 min 310 W/m 10,5 km/h (2 Bft) 100,00 %
29.04.2016 14:40 10,7 C 13,9 C 11,1 C 82 % 0 lf 1013,4 hPa 0,0 l/m 0 min 0 min 275 W/m 14,6 km/h (3 Bft) 97,87 %
29.04.2016 14:42 10,7 C 13,3 C 11,1 C 81 % 0 lf 1013,4 hPa 0,0 l/m 0 min 0 min 287 W/m 14,6 km/h (3 Bft) 97,87 %
29.04.2016 14:44 10,7 C 12,8 C 10,6 C 80 % 0 lf 1013,4 hPa 0,0 l/m 0 min 0 min 305 W/m 16,7 km/h (3 Bft) 100,00 %
29.04.2016 14:46 10,7 C 12,8 C 10,6 C 80 % 0 lf 1013,5 hPa 0,0 l/m 0 min 0 min 307 W/m 12,6 km/h (3 Bft) 97,83 %
29.04.2016 14:48 10,7 C 12,8 C 10,6 C 80 % 0 lf 1013,5 hPa 0,0 l/m 0 min 0 min 290 W/m 20,9 km/h (4 Bft) 100,00 %
29.04.2016 14:50 10,8 C 12,8 C 10,6 C 79 % 0 lf 1013,6 hPa 0,0 l/m 0 min 0 min 249 W/m 18,8 km/h (3 Bft) 100,00 %
29.04.2016 14:52 10,8 C 12,8 C 10,6 C 79 % 0 lf 1013,6 hPa 0,0 l/m 0 min 0 min 235 W/m 16,7 km/h (3 Bft) 100,00 %
29.04.2016 14:54 10,8 C 12,8 C 10,6 C 79 % 0 lf 1013,5 hPa 0,0 l/m 0 min 0 min 260 W/m 14,6 km/h (3 Bft) 97,87 %
29.04.2016 14:56 10,8 C 12,8 C 10,6 C 79 % 0 lf 1013,5 hPa 0,0 l/m 0 min 0 min 268 W/m 18,8 km/h (3 Bft) 95,74 %
29.04.2016 14:58 10,8 C 12,2 C 10,6 C 79 % 0 lf 1013,6 hPa 0,0 l/m 0 min 0 min 228 W/m 16,7 km/h (3 Bft) 100,00 %
29.04.2016 15:00 10,8 C 12,2 C 10,0 C 79 % 0 lf 1013,6 hPa 0,0 l/m 0 min 0 min 174 W/m 12,6 km/h (3 Bft) 97,87 %
29.04.2016 15:02 10,7 C 11,7 C 9,4 C 78 % 0 lf 1013,7 hPa 0,0 l/m 0 min 0 min 134 W/m 20,9 km/h (4 Bft) 97,87 %
29.04.2016 15:04 10,7 C 11,1 C 9,4 C 78 % 0 lf 1013,7 hPa 0,0 l/m 0 min 0 min 108 W/m 18,8 km/h (3 Bft) 95,74 %
29.04.2016 15:06 10,6 C 10,6 C 8,9 C 78 % 0 lf 1013,8 hPa 0,0 l/m 0 min 0 min 103 W/m 12,6 km/h (3 Bft) 97,87 %
29.04.2016 15:08 10,4 C 10,6 C 8,9 C 78 % 0 lf 1013,8 hPa 0,0 l/m 0 min 0 min 102 W/m 18,8 km/h (3 Bft) 97,87 %
29.04.2016 15:10 10,4 C 10,6 C 8,9 C 78 % 5 lf 1013,8 hPa 0,0 l/m 0 min 2 min 108 W/m 18,8 km/h (3 Bft) 93,48 %
29.04.2016 15:12 10,3 C 10,0 C 8,3 C 78 % 7 lf 1013,8 hPa 0,0 l/m 0 min 2 min 103 W/m 16,7 km/h (3 Bft) 97,87 %
29.04.2016 15:14 10,2 C 10,0 C 8,3 C 79 % 4 lf 1013,8 hPa 0,0 l/m 0 min 2 min 96 W/m 16,7 km/h (3 Bft) 97,87 %
29.04.2016 15:16 10,2 C 10,0 C 8,3 C 79 % 2 lf 1013,8 hPa 0,0 l/m 0 min 2 min 109 W/m 18,8 km/h (3 Bft) 97,87 %
29.04.2016 15:18 10,1 C 9,4 C 8,3 C 79 % 1 lf 1013,8 hPa 0,0 l/m 0 min 0 min 127 W/m 18,8 km/h (3 Bft) 97,87 %
29.04.2016 15:20 9,9 C 10,0 C 8,3 C 80 % 0 lf 1013,8 hPa 0,0 l/m 0 min 2 min 153 W/m 18,8 km/h (3 Bft) 95,74 %
29.04.2016 15:22 9,9 C 10,0 C 8,3 C 80 % 0 lf 1013,7 hPa 0,0 l/m 0 min 0 min 157 W/m 16,7 km/h (3 Bft) 95,65 %
29.04.2016 15:24 9,8 C 10,0 C 8,3 C 81 % 1 lf 1013,7 hPa 0,0 l/m 0 min 0 min 178 W/m 16,7 km/h (3 Bft) 97,87 %
29.04.2016 15:26 9,8 C 10,6 C 8,9 C 81 % 1 lf 1013,8 hPa 0,0 l/m 0 min 0 min 188 W/m 14,6 km/h (3 Bft) 97,87 %
29.04.2016 15:28 9,8 C 10,6 C 8,9 C 82 % 1 lf 1013,8 hPa 0,0 l/m 0 min 0 min 161 W/m 14,6 km/h (3 Bft) 97,87 %
29.04.2016 15:30 9,7 C 10,6 C 8,3 C 82 % 0 lf 1013,9 hPa 0,0 l/m 0 min 0 min 144 W/m 16,7 km/h (3 Bft) 93,62 %
29.04.2016 15:32 9,7 C 10,6 C 8,3 C 81 % 0 lf 1013,9 hPa 0,0 l/m 0 min 0 min 143 W/m 18,8 km/h (3 Bft) 97,87 %
29.04.2016 15:34 9,7 C 10,6 C 8,3 C 81 % 0 lf 1013,8 hPa 0,0 l/m 0 min 0 min 170 W/m 20,9 km/h (4 Bft) 97,83 %
29.04.2016 15:36 9,6 C 10,6 C 8,3 C 81 % 0 lf 1013,8 hPa 0,0 l/m 0 min 0 min 209 W/m 23,0 km/h (4 Bft) 97,87 %
29.04.2016 15:38 9,6 C 11,1 C 8,9 C 81 % 0 lf 1013,8 hPa 0,0 l/m 0 min 0 min 258 W/m 25,1 km/h (4 Bft) 97,87 %
29.04.2016 15:40 9,6 C 11,1 C 9,4 C 81 % 0 lf 1013,8 hPa 0,0 l/m 0 min 0 min 269 W/m 16,7 km/h (3 Bft) 95,74 %
29.04.2016 15:42 9,6 C 11,1 C 9,4 C 82 % 0 lf 1013,7 hPa 0,0 l/m 0 min 0 min 256 W/m 14,6 km/h (3 Bft) 95,74 %
29.04.2016 15:44 9,6 C 11,7 C 9,4 C 82 % 0 lf 1013,8 hPa 0,0 l/m 0 min 0 min 220 W/m 16,7 km/h (3 Bft) 95,65 %
29.04.2016 15:46 9,6 C 11,1 C 9,4 C 82 % 0 lf 1013,8 hPa 0,0 l/m 0 min 0 min 187 W/m 18,8 km/h (3 Bft) 97,87 %
29.04.2016 15:48 9,6 C 10,6 C 9,4 C 81 % 0 lf 1013,9 hPa 0,0 l/m 0 min 0 min 176 W/m 12,6 km/h (3 Bft) 100,00 %
29.04.2016 15:50 9,6 C 10,6 C 9,4 C 81 % 0 lf 1013,9 hPa 0,0 l/m 0 min 0 min 149 W/m 10,5 km/h (2 Bft) 100,00 %
29.04.2016 15:52 9,6 C 10,6 C 8,9 C 81 % 0 lf 1013,9 hPa 0,0 l/m 0 min 0 min 120 W/m 14,6 km/h (3 Bft) 97,87 %
29.04.2016 15:54 9,6 C 10,6 C 8,9 C 81 % 0 lf 1013,9 hPa 0,0 l/m 0 min 0 min 104 W/m 16,7 km/h (3 Bft) 95,74 %
29.04.2016 15:56 9,6 C 10,0 C 8,9 C 81 % 0 lf 1013,9 hPa 0,0 l/m 0 min 0 min 93 W/m 14,6 km/h (3 Bft) 93,48 %
29.04.2016 15:58 9,6 C 10,0 C 8,3 C 81 % 0 lf 1014,0 hPa 0,0 l/m 0 min 0 min 76 W/m 12,6 km/h (3 Bft) 97,87 %
29.04.2016 15:59 9,6 C 10,0 C 8,3 C 81 % 0 lf 1014,0 hPa 0,0 l/m 0 min 0 min 74 W/m 6,3 km/h (2 Bft) 95,65 %
29.04.2016 16:00 9,6 C 10,0 C 8,3 C 81 % 0 lf 1014,0 hPa 0,0 l/m 0 min 0 min 95 W/m 12,6 km/h (3 Bft) 100,00 %
29.04.2016 16:01 9,6 C 10,0 C 8,3 C 81 % 0 lf 1013,9 hPa 0,0 l/m 0 min 0 min 113 W/m 12,6 km/h (3 Bft) 86,96 %
29.04.2016 16:02 9,5 C 10,0 C 8,3 C 81 % 0 lf 1013,9 hPa 0,0 l/m 0 min 0 min 148 W/m 6,3 km/h (2 Bft) 100,00 %
29.04.2016 16:03 9,5 C 10,0 C 8,3 C 81 % 0 lf 1013,9 hPa 0,0 l/m 0 min 0 min 186 W/m 8,4 km/h (2 Bft) 91,30 %
29.04.2016 16:04 9,5 C 10,6 C 8,3 C 81 % 0 lf 1013,8 hPa 0,0 l/m 0 min 0 min 204 W/m 12,6 km/h (3 Bft) 100,00 %
29.04.2016 16:05 9,5 C 10,6 C 8,9 C 81 % 1 lf 1013,9 hPa 0,0 l/m 0 min 1 min 220 W/m 10,5 km/h (2 Bft) 100,00 %
29.04.2016 16:06 9,5 C 11,1 C 8,9 C 81 % 0 lf 1013,9 hPa 0,0 l/m 0 min 1 min 236 W/m 10,5 km/h (2 Bft) 95,65 %
29.04.2016 16:08 9,5 C 11,7 C 9,4 C 81 % 0 lf 1013,8 hPa 0,0 l/m 0 min 0 min 268 W/m 8,4 km/h (2 Bft) 95,83 %
29.04.2016 16:10 9,6 C 12,2 C 9,4 C 81 % 0 lf 1013,9 hPa 0,0 l/m 0 min 0 min 274 W/m 12,6 km/h (3 Bft) 97,87 %
29.04.2016 16:12 9,6 C 12,2 C 9,4 C 82 % 0 lf 1013,9 hPa 0,0 l/m 0 min 0 min 224 W/m 12,6 km/h (3 Bft) 95,74 %
29.04.2016 16:14 9,6 C 12,2 C 9,4 C 82 % 0 lf 1013,9 hPa 0,0 l/m 0 min 0 min 184 W/m 12,6 km/h (3 Bft) 97,87 %
29.04.2016 16:16 9,7 C 12,2 C 9,4 C 81 % 0 lf 1013,9 hPa 0,0 l/m 0 min 0 min 185 W/m 14,6 km/h (3 Bft) 97,87 %
29.04.2016 16:18 9,7 C 12,2 C 9,4 C 81 % 0 lf 1014,0 hPa 0,0 l/m 0 min 0 min 213 W/m 14,6 km/h (3 Bft) 97,87 %
29.04.2016 16:20 9,7 C 12,2 C 9,4 C 81 % 0 lf 1014,0 hPa 0,0 l/m 0 min 0 min 229 W/m 12,6 km/h (3 Bft) 95,65 %
29.04.2016 16:22 9,7 C 12,2 C 9,4 C 81 % 0 lf 1014,0 hPa 0,0 l/m 0 min 0 min 219 W/m 10,5 km/h (2 Bft) 93,62 %
29.04.2016 16:24 9,7 C 12,2 C 9,4 C 81 % 0 lf 1014,1 hPa 0,0 l/m 0 min 0 min 197 W/m 10,5 km/h (2 Bft) 93,62 %
29.04.2016 16:26 9,8 C 11,7 C 9,4 C 81 % 0 lf 1014,0 hPa 0,0 l/m 0 min 0 min 185 W/m 10,5 km/h (2 Bft) 97,87 %
29.04.2016 16:28 9,8 C 11,7 C 9,4 C 81 % 0 lf 1014,1 hPa 0,0 l/m 0 min 0 min 187 W/m 14,6 km/h (3 Bft) 97,87 %
29.04.2016 16:30 9,8 C 11,7 C 9,4 C 80 % 0 lf 1014,1 hPa 0,0 l/m 0 min 0 min 145 W/m 14,6 km/h (3 Bft) 95,74 %
29.04.2016 16:32 9,8 C 11,1 C 8,9 C 80 % 0 lf 1014,1 hPa 0,0 l/m 0 min 0 min 120 W/m 18,8 km/h (3 Bft) 95,65 %
29.04.2016 16:34 9,7 C 10,6 C 8,9 C 79 % 0 lf 1014,1 hPa 0,0 l/m 0 min 0 min 115 W/m 14,6 km/h (3 Bft) 97,87 %
29.04.2016 16:36 9,7 C 10,6 C 8,9 C 79 % 0 lf 1014,0 hPa 0,0 l/m 0 min 0 min 110 W/m 14,6 km/h (3 Bft) 97,87 %
29.04.2016 16:38 9,7 C 10,6 C 8,9 C 78 % 0 lf 1014,1 hPa 0,0 l/m 0 min 0 min 93 W/m 10,5 km/h (2 Bft) 95,74 %
29.04.2016 16:40 9,7 C 10,6 C 8,3 C 78 % 1 lf 1014,0 hPa 0,0 l/m 0 min 0 min 78 W/m 8,4 km/h (2 Bft) 95,74 %
29.04.2016 16:42 9,7 C 10,0 C 8,3 C 78 % 0 lf 1014,0 hPa 0,0 l/m 0 min 2 min 76 W/m 12,6 km/h (3 Bft) 97,83 %
29.04.2016 16:44 9,6 C 10,0 C 8,3 C 78 % 0 lf 1014,0 hPa 0,0 l/m 0 min 0 min 83 W/m 12,6 km/h (3 Bft) 97,87 %
29.04.2016 16:46 9,6 C 10,0 C 8,3 C 78 % 0 lf 1013,9 hPa 0,0 l/m 0 min 0 min 103 W/m 10,5 km/h (2 Bft) 97,87 %
29.04.2016 16:48 9,6 C 10,0 C 8,3 C 78 % 0 lf 1014,1 hPa 0,0 l/m 0 min 0 min 97 W/m 18,8 km/h (3 Bft) 97,87 %
29.04.2016 16:50 9,5 C 9,4 C 8,3 C 78 % 0 lf 1014,0 hPa 0,0 l/m 0 min 0 min 82 W/m 14,6 km/h (3 Bft) 95,74 %
29.04.2016 16:52 9,4 C 9,4 C 7,8 C 78 % 0 lf 1014,1 hPa 0,0 l/m 0 min 0 min 94 W/m 20,9 km/h (4 Bft) 95,74 %
29.04.2016 16:54 9,4 C 9,4 C 8,3 C 78 % 0 lf 1014,1 hPa 0,0 l/m 0 min 0 min 119 W/m 16,7 km/h (3 Bft) 93,48 %
29.04.2016 16:56 9,4 C 10,0 C 8,3 C 79 % 0 lf 1014,2 hPa 0,0 l/m 0 min 0 min 126 W/m 12,6 km/h (3 Bft) 95,74 %
29.04.2016 16:58 9,3 C 10,0 C 8,3 C 79 % 1 lf 1014,2 hPa 0,0 l/m 0 min 0 min 136 W/m 29,3 km/h (5 Bft) 95,74 %
29.04.2016 17:00 9,3 C 10,0 C 8,3 C 79 % 0 lf 1014,2 hPa 0,0 l/m 0 min 0 min 136 W/m 25,1 km/h (4 Bft) 95,74 %
29.04.2016 17:02 9,3 C 10,0 C 8,3 C 79 % 1 lf 1014,2 hPa 0,0 l/m 0 min 0 min 136 W/m 23,0 km/h (4 Bft) 97,87 %
29.04.2016 17:04 9,2 C 10,0 C 8,3 C 79 % 1 lf 1014,2 hPa 0,0 l/m 0 min 2 min 134 W/m 23,0 km/h (4 Bft) 93,62 %
29.04.2016 17:06 9,2 C 10,0 C 8,3 C 80 % 1 lf 1014,1 hPa 0,0 l/m 0 min 0 min 114 W/m 23,0 km/h (4 Bft) 93,48 %
29.04.2016 17:08 9,2 C 9,4 C 7,8 C 80 % 0 lf 1014,2 hPa 0,0 l/m 0 min 0 min 90 W/m 18,8 km/h (3 Bft) 97,87 %
29.04.2016 17:10 9,2 C 9,4 C 7,8 C 80 % 0 lf 1014,2 hPa 0,0 l/m 0 min 0 min 75 W/m 23,0 km/h (4 Bft) 95,74 %
29.04.2016 17:12 9,1 C 9,4 C 7,8 C 81 % 0 lf 1014,3 hPa 0,0 l/m 0 min 0 min 68 W/m 20,9 km/h (4 Bft) 95,74 %
29.04.2016 17:14 9,1 C 8,9 C 7,2 C 81 % 2 lf 1014,3 hPa 0,0 l/m 0 min 0 min 63 W/m 29,3 km/h (5 Bft) 95,74 %
29.04.2016 17:16 9,0 C 8,9 C 7,2 C 81 % 3 lf 1014,3 hPa 0,0 l/m 0 min 2 min 64 W/m 20,9 km/h (4 Bft) 97,87 %
29.04.2016 17:18 8,9 C 8,9 C 7,2 C 82 % 8 lf 1014,2 hPa 0,0 l/m 0 min 2 min 65 W/m 18,8 km/h (3 Bft) 93,48 %
29.04.2016 17:20 8,9 C 8,9 C 7,2 C 82 % 14 lf 1014,2 hPa 0,0 l/m 0 min 2 min 61 W/m 18,8 km/h (3 Bft) 95,74 %
29.04.2016 17:22 8,9 C 8,3 C 6,7 C 82 % 15 lf 1014,3 hPa 0,0 l/m 0 min 2 min 54 W/m 8,4 km/h (2 Bft) 95,74 %
29.04.2016 17:24 8,8 C 8,3 C 6,7 C 83 % 15 lf 1014,3 hPa 0,0 l/m 0 min 2 min 48 W/m 18,8 km/h (3 Bft) 97,87 %
29.04.2016 17:26 8,8 C 7,8 C 6,7 C 83 % 15 lf 1014,3 hPa 0,0 l/m 0 min 2 min 45 W/m 12,6 km/h (3 Bft) 95,74 %
29.04.2016 17:28 8,8 C 7,8 C 6,7 C 84 % 15 lf 1014,3 hPa 0,0 l/m 0 min 2 min 46 W/m 16,7 km/h (3 Bft) 97,87 %
29.04.2016 17:30 8,7 C 7,8 C 6,1 C 84 % 15 lf 1014,3 hPa 0,0 l/m 0 min 2 min 46 W/m 18,8 km/h (3 Bft) 97,83 %
29.04.2016 17:32 8,7 C 7,2 C 6,1 C 85 % 15 lf 1014,3 hPa 0,0 l/m 0 min 2 min 47 W/m 16,7 km/h (3 Bft) 95,74 %
29.04.2016 17:34 8,6 C 7,2 C 6,1 C 85 % 15 lf 1014,3 hPa 0,0 l/m 0 min 2 min 46 W/m 12,6 km/h (3 Bft) 97,87 %
29.04.2016 17:36 8,6 C 7,2 C 6,1 C 85 % 15 lf 1014,2 hPa 0,0 l/m 0 min 2 min 45 W/m 18,8 km/h (3 Bft) 98,00 %
29.04.2016 17:38 8,5 C 7,2 C 6,1 C 86 % 15 lf 1014,3 hPa 0,0 l/m 0 min 2 min 48 W/m 12,6 km/h (3 Bft) 97,87 %
29.04.2016 17:40 8,4 C 7,2 C 6,1 C 86 % 15 lf 1014,3 hPa 0,0 l/m 0 min 2 min 51 W/m 14,6 km/h (3 Bft) 93,48 %
29.04.2016 17:42 8,4 C 7,2 C 6,1 C 87 % 15 lf 1014,3 hPa 0,0 l/m 0 min 2 min 56 W/m 12,6 km/h (3 Bft) 97,87 %
29.04.2016 17:44 8,4 C 7,2 C 6,1 C 87 % 15 lf 1014,3 hPa 0,0 l/m 0 min 2 min 64 W/m 18,8 km/h (3 Bft) 95,74 %
29.04.2016 17:46 8,3 C 7,2 C 6,1 C 87 % 15 lf 1014,3 hPa 0,0 l/m 0 min 2 min 64 W/m 14,6 km/h (3 Bft) 93,62 %
29.04.2016 17:48 8,3 C 7,2 C 6,1 C 87 % 15 lf 1014,4 hPa 0,0 l/m 0 min 2 min 67 W/m 16,7 km/h (3 Bft) 93,62 %
29.04.2016 17:50 8,2 C 7,2 C 6,1 C 88 % 15 lf 1014,3 hPa 0,0 l/m 0 min 2 min 68 W/m 14,6 km/h (3 Bft) 93,62 %
29.04.2016 17:52 8,2 C 7,2 C 6,1 C 88 % 15 lf 1014,4 hPa 0,0 l/m 0 min 2 min 64 W/m 18,8 km/h (3 Bft) 93,48 %
29.04.2016 17:54 8,2 C 7,2 C 6,1 C 88 % 15 lf 1014,4 hPa 0,0 l/m 0 min 2 min 49 W/m 14,6 km/h (3 Bft) 95,74 %
29.04.2016 17:56 8,1 C 7,2 C 6,1 C 89 % 15 lf 1014,4 hPa 0,0 l/m 0 min 2 min 37 W/m 14,6 km/h (3 Bft) 91,49 %
29.04.2016 17:58 8,1 C 7,2 C 6,1 C 89 % 15 lf 1014,4 hPa 0,0 l/m 0 min 2 min 32 W/m 14,6 km/h (3 Bft) 91,49 %
29.04.2016 18:00 8,1 C 7,2 C 6,1 C 89 % 15 lf 1014,4 hPa 0,0 l/m 0 min 2 min 31 W/m 18,8 km/h (3 Bft) 93,62 %
29.04.2016 18:02 8,0 C 7,2 C 6,1 C 89 % 15 lf 1014,5 hPa 0,0 l/m 0 min 2 min 27 W/m 18,8 km/h (3 Bft) 87,23 %
29.04.2016 18:04 8,0 C 7,2 C 6,1 C 89 % 15 lf 1014,5 hPa 0,0 l/m 0 min 2 min 27 W/m 14,6 km/h (3 Bft) 93,62 %
29.04.2016 18:06 7,9 C 7,2 C 6,1 C 89 % 15 lf 1014,5 hPa 0,0 l/m 0 min 2 min 28 W/m 12,6 km/h (3 Bft) 91,49 %
29.04.2016 18:08 7,9 C 7,2 C 6,1 C 90 % 15 lf 1014,5 hPa 0,0 l/m 0 min 2 min 24 W/m 14,6 km/h (3 Bft) 93,62 %
29.04.2016 18:10 7,9 C 7,2 C 6,1 C 90 % 15 lf 1014,5 hPa 0,0 l/m 0 min 2 min 23 W/m 14,6 km/h (3 Bft) 93,62 %
29.04.2016 18:12 7,9 C 7,2 C 6,1 C 90 % 15 lf 1014,5 hPa 0,0 l/m 0 min 2 min 29 W/m 16,7 km/h (3 Bft) 93,62 %
29.04.2016 18:14 7,8 C 7,2 C 6,1 C 90 % 15 lf 1014,5 hPa 0,0 l/m 0 min 2 min 43 W/m 8,4 km/h (2 Bft) 91,49 %
29.04.2016 18:16 7,8 C 7,2 C 6,1 C 90 % 15 lf 1014,5 hPa 0,0 l/m 0 min 2 min 60 W/m 12,6 km/h (3 Bft) 89,13 %
29.04.2016 18:18 7,8 C 7,2 C 6,1 C 90 % 15 lf 1014,6 hPa 0,0 l/m 0 min 2 min 66 W/m 12,6 km/h (3 Bft) 93,62 %
29.04.2016 18:20 7,8 C 7,2 C 6,1 C 91 % 15 lf 1014,6 hPa 0,0 l/m 0 min 2 min 62 W/m 14,6 km/h (3 Bft) 93,62 %
29.04.2016 18:22 7,8 C 7,2 C 6,1 C 91 % 15 lf 1014,6 hPa 0,0 l/m 0 min 2 min 54 W/m 14,6 km/h (3 Bft) 93,62 %
29.04.2016 18:24 7,8 C 7,2 C 6,1 C 91 % 15 lf 1014,6 hPa 0,0 l/m 0 min 2 min 59 W/m 14,6 km/h (3 Bft) 93,62 %
29.04.2016 18:26 7,8 C 7,2 C 6,1 C 91 % 15 lf 1014,6 hPa 0,0 l/m 0 min 2 min 65 W/m 12,6 km/h (3 Bft) 89,36 %
29.04.2016 18:28 7,8 C 7,2 C 6,1 C 91 % 15 lf 1014,5 hPa 0,0 l/m 0 min 2 min 68 W/m 12,6 km/h (3 Bft) 95,65 %
29.04.2016 18:30 7,8 C 7,2 C 6,1 C 91 % 15 lf 1014,6 hPa 0,2 l/m 0 min 2 min 72 W/m 10,5 km/h (2 Bft) 95,74 %
29.04.2016 18:32 7,8 C 7,2 C 6,1 C 91 % 15 lf 1014,5 hPa 0,0 l/m 0 min 2 min 63 W/m 10,5 km/h (2 Bft) 93,62 %
29.04.2016 18:34 7,8 C 7,2 C 6,1 C 91 % 15 lf 1014,5 hPa 0,0 l/m 0 min 2 min 42 W/m 10,5 km/h (2 Bft) 97,87 %
29.04.2016 18:36 7,8 C 7,2 C 6,1 C 91 % 15 lf 1014,5 hPa 0,0 l/m 0 min 2 min 34 W/m 14,6 km/h (3 Bft) 95,74 %
29.04.2016 18:38 7,8 C 7,2 C 6,1 C 91 % 15 lf 1014,5 hPa 0,0 l/m 0 min 2 min 32 W/m 10,5 km/h (2 Bft) 97,83 %
29.04.2016 18:40 7,8 C 7,2 C 6,1 C 91 % 15 lf 1014,5 hPa 0,0 l/m 0 min 2 min 30 W/m 8,4 km/h (2 Bft) 97,87 %
29.04.2016 18:42 7,8 C 7,2 C 6,1 C 91 % 15 lf 1014,4 hPa 0,0 l/m 0 min 2 min 31 W/m 8,4 km/h (2 Bft) 100,00 %
29.04.2016 18:44 7,7 C 7,2 C 6,1 C 91 % 15 lf 1014,6 hPa 0,0 l/m 0 min 2 min 37 W/m 8,4 km/h (2 Bft) 95,74 %
29.04.2016 18:46 7,7 C 7,2 C 6,1 C 92 % 15 lf 1014,5 hPa 0,0 l/m 0 min 2 min 39 W/m 10,5 km/h (2 Bft) 100,00 %
29.04.2016 18:48 7,7 C 7,2 C 6,1 C 92 % 15 lf 1014,5 hPa 0,0 l/m 0 min 2 min 40 W/m 8,4 km/h (2 Bft) 97,87 %
29.04.2016 18:50 7,7 C 7,2 C 6,1 C 92 % 15 lf 1014,6 hPa 0,0 l/m 0 min 2 min 40 W/m 10,5 km/h (2 Bft) 97,87 %
29.04.2016 18:52 7,7 C 7,2 C 6,1 C 92 % 15 lf 1014,6 hPa 0,0 l/m 0 min 2 min 40 W/m 12,6 km/h (3 Bft) 97,83 %
29.04.2016 18:54 7,7 C 7,2 C 6,1 C 92 % 15 lf 1014,6 hPa 0,0 l/m 0 min 2 min 42 W/m 18,8 km/h (3 Bft) 100,00 %
29.04.2016 18:56 7,7 C 7,2 C 6,1 C 92 % 15 lf 1014,6 hPa 0,0 l/m 0 min 2 min 47 W/m 12,6 km/h (3 Bft) 100,00 %
29.04.2016 18:58 7,7 C 7,2 C 6,1 C 92 % 15 lf 1014,6 hPa 0,0 l/m 0 min 2 min 56 W/m 12,6 km/h (3 Bft) 93,62 %
29.04.2016 19:00 7,7 C 7,2 C 6,1 C 92 % 15 lf 1014,6 hPa 0,0 l/m 0 min 2 min 62 W/m 10,5 km/h (2 Bft) 95,74 %
29.04.2016 19:02 7,7 C 7,2 C 6,1 C 92 % 15 lf 1014,6 hPa 0,0 l/m 0 min 2 min 57 W/m 12,6 km/h (3 Bft) 100,00 %
29.04.2016 19:04 7,7 C 7,2 C 6,1 C 92 % 15 lf 1014,6 hPa 0,0 l/m 0 min 2 min 58 W/m 14,6 km/h (3 Bft) 95,74 %
29.04.2016 19:06 7,7 C 7,2 C 6,1 C 92 % 15 lf 1014,6 hPa 0,0 l/m 0 min 2 min 60 W/m 12,6 km/h (3 Bft) 95,74 %
29.04.2016 19:08 7,7 C 7,2 C 6,1 C 92 % 15 lf 1014,5 hPa 0,0 l/m 0 min 2 min 52 W/m 12,6 km/h (3 Bft) 97,87 %
29.04.2016 19:10 7,7 C 7,2 C 6,1 C 92 % 15 lf 1014,5 hPa 0,0 l/m 0 min 2 min 41 W/m 12,6 km/h (3 Bft) 100,00 %
29.04.2016 19:12 7,7 C 7,2 C 6,1 C 92 % 15 lf 1014,7 hPa 0,0 l/m 0 min 2 min 30 W/m 8,4 km/h (2 Bft) 97,87 %
29.04.2016 19:14 7,7 C 7,2 C 6,1 C 92 % 15 lf 1014,6 hPa 0,0 l/m 0 min 2 min 26 W/m 12,6 km/h (3 Bft) 97,83 %
29.04.2016 19:16 7,6 C 7,2 C 6,1 C 92 % 15 lf 1014,6 hPa 0,0 l/m 0 min 2 min 26 W/m 8,4 km/h (2 Bft) 95,74 %
29.04.2016 19:18 7,7 C 7,2 C 6,1 C 92 % 15 lf 1014,5 hPa 0,0 l/m 0 min 2 min 25 W/m 16,7 km/h (3 Bft) 93,62 %
29.04.2016 19:20 7,6 C 7,2 C 6,1 C 93 % 15 lf 1014,5 hPa 0,0 l/m 0 min 2 min 21 W/m 10,5 km/h (2 Bft) 97,87 %
29.04.2016 19:22 7,6 C 7,2 C 6,1 C 93 % 15 lf 1014,5 hPa 0,0 l/m 0 min 2 min 17 W/m 12,6 km/h (3 Bft) 97,87 %
29.04.2016 19:24 7,6 C 7,2 C 6,1 C 93 % 15 lf 1014,4 hPa 0,0 l/m 0 min 2 min 14 W/m 14,6 km/h (3 Bft) 95,74 %
29.04.2016 19:26 7,6 C 7,2 C 6,1 C 93 % 15 lf 1014,4 hPa 0,0 l/m 0 min 2 min 12 W/m 14,6 km/h (3 Bft) 97,83 %
29.04.2016 19:28 7,6 C 7,2 C 6,1 C 93 % 15 lf 1014,4 hPa 0,0 l/m 0 min 2 min 11 W/m 14,6 km/h (3 Bft) 95,74 %
29.04.2016 19:30 7,6 C 7,2 C 6,1 C 93 % 15 lf 1014,3 hPa 0,0 l/m 0 min 2 min 11 W/m 14,6 km/h (3 Bft) 97,87 %
29.04.2016 19:32 7,6 C 6,7 C 6,1 C 93 % 15 lf 1014,4 hPa 0,0 l/m 0 min 2 min 12 W/m 14,6 km/h (3 Bft) 97,87 %
29.04.2016 19:34 7,6 C 6,7 C 5,6 C 93 % 15 lf 1014,4 hPa 0,0 l/m 0 min 2 min 14 W/m 14,6 km/h (3 Bft) 97,87 %
29.04.2016 19:36 7,6 C 7,2 C 6,1 C 93 % 15 lf 1014,4 hPa 0,0 l/m 0 min 2 min 15 W/m 14,6 km/h (3 Bft) 95,74 %
29.04.2016 19:38 7,6 C 7,2 C 6,1 C 93 % 15 lf 1014,3 hPa 0,0 l/m 0 min 2 min 16 W/m 12,6 km/h (3 Bft) 93,48 %
29.04.2016 19:40 7,6 C 7,2 C 6,1 C 93 % 15 lf 1014,4 hPa 0,0 l/m 0 min 2 min 17 W/m 16,7 km/h (3 Bft) 95,74 %
29.04.2016 19:42 7,5 C 7,2 C 6,1 C 93 % 15 lf 1014,3 hPa 0,0 l/m 0 min 2 min 18 W/m 18,8 km/h (3 Bft) 97,87 %
29.04.2016 19:44 7,5 C 7,2 C 6,1 C 93 % 15 lf 1014,3 hPa 0,0 l/m 0 min 2 min 19 W/m 16,7 km/h (3 Bft) 95,74 %
29.04.2016 19:46 7,5 C 7,2 C 6,1 C 93 % 15 lf 1014,3 hPa 0,0 l/m 0 min 2 min 24 W/m 16,7 km/h (3 Bft) 95,74 %
29.04.2016 19:48 7,5 C 7,2 C 6,1 C 93 % 15 lf 1014,3 hPa 0,0 l/m 0 min 2 min 27 W/m 14,6 km/h (3 Bft) 97,92 %
29.04.2016 19:50 7,5 C 7,2 C 6,1 C 94 % 15 lf 1014,2 hPa 0,0 l/m 0 min 2 min 30 W/m 14,6 km/h (3 Bft) 97,87 %
29.04.2016 19:52 7,5 C 7,2 C 6,1 C 93 % 15 lf 1014,2 hPa 0,0 l/m 0 min 2 min 30 W/m 14,6 km/h (3 Bft) 95,74 %
29.04.2016 19:54 7,5 C 7,2 C 6,1 C 93 % 15 lf 1014,3 hPa 0,0 l/m 0 min 2 min 31 W/m 16,7 km/h (3 Bft) 97,87 %
29.04.2016 19:56 7,4 C 7,2 C 6,1 C 93 % 15 lf 1014,2 hPa 0,0 l/m 0 min 2 min 32 W/m 20,9 km/h (4 Bft) 97,87 %
29.04.2016 19:58 7,4 C 7,2 C 6,1 C 94 % 15 lf 1014,2 hPa 0,0 l/m 0 min 2 min 33 W/m 14,6 km/h (3 Bft) 95,74 %
29.04.2016 20:00 7,4 C 7,2 C 6,1 C 94 % 15 lf 1014,3 hPa 0,0 l/m 0 min 2 min 33 W/m 14,6 km/h (3 Bft) 97,83 %
29.04.2016 20:02 7,5 C 7,2 C 6,1 C 94 % 15 lf 1014,3 hPa 0,0 l/m 0 min 0 min 34 W/m 23,0 km/h (4 Bft) 95,74 %
29.04.2016 20:04 7,4 C 7,2 C 6,1 C 94 % 15 lf 1014,3 hPa 0,0 l/m 0 min 0 min 37 W/m 20,9 km/h (4 Bft) 97,87 %
29.04.2016 20:06 7,4 C 7,2 C 6,1 C 94 % 15 lf 1014,2 hPa 0,0 l/m 0 min 2 min 44 W/m 23,0 km/h (4 Bft) 95,74 %
29.04.2016 20:08 7,4 C 7,2 C 6,1 C 94 % 15 lf 1014,2 hPa 0,0 l/m 0 min 0 min 49 W/m 10,5 km/h (2 Bft) 97,87 %
29.04.2016 20:10 7,4 C 7,2 C 6,1 C 94 % 15 lf 1014,2 hPa 0,0 l/m 2 min 0 min 53 W/m 12,6 km/h (3 Bft) 95,74 %
29.04.2016 20:12 7,4 C 7,2 C 6,1 C 94 % 15 lf 1014,2 hPa 0,0 l/m 2 min 0 min 51 W/m 10,5 km/h (2 Bft) 95,65 %
29.04.2016 20:14 7,4 C 7,2 C 6,1 C 94 % 15 lf 1014,2 hPa 0,0 l/m 2 min 0 min 47 W/m 10,5 km/h (2 Bft) 100,00 %
29.04.2016 20:16 7,4 C 7,2 C 6,1 C 94 % 15 lf 1014,3 hPa 0,0 l/m 2 min 0 min 41 W/m 20,9 km/h (4 Bft) 100,00 %
29.04.2016 20:18 7,4 C 7,2 C 6,1 C 94 % 15 lf 1014,3 hPa 0,0 l/m 0 min 0 min 37 W/m 12,6 km/h (3 Bft) 97,87 %
29.04.2016 20:20 7,4 C 7,2 C 6,1 C 94 % 15 lf 1014,3 hPa 0,0 l/m 0 min 0 min 33 W/m 14,6 km/h (3 Bft) 95,74 %
29.04.2016 20:22 7,4 C 7,2 C 6,1 C 94 % 15 lf 1014,3 hPa 0,0 l/m 0 min 0 min 30 W/m 8,4 km/h (2 Bft) 95,74 %
29.04.2016 20:24 7,4 C 7,2 C 6,1 C 94 % 15 lf 1014,3 hPa 0,0 l/m 2 min 0 min 30 W/m 10,5 km/h (2 Bft) 100,00 %
29.04.2016 20:26 7,4 C 7,2 C 6,1 C 94 % 15 lf 1014,3 hPa 0,0 l/m 2 min 0 min 30 W/m 12,6 km/h (3 Bft) 100,00 %
29.04.2016 20:28 7,4 C 7,2 C 6,1 C 94 % 15 lf 1014,3 hPa 0,0 l/m 2 min 0 min 29 W/m 12,6 km/h (3 Bft) 100,00 %
29.04.2016 20:30 7,4 C 7,2 C 5,6 C 94 % 15 lf 1014,3 hPa 0,0 l/m 2 min 0 min 28 W/m 12,6 km/h (3 Bft) 100,00 %
29.04.2016 20:32 7,4 C 7,2 C 5,6 C 94 % 15 lf 1014,3 hPa 0,0 l/m 2 min 0 min 26 W/m 8,4 km/h (2 Bft) 100,00 %
29.04.2016 20:34 7,4 C 7,2 C 5,6 C 94 % 15 lf 1014,3 hPa 0,0 l/m 2 min 0 min 25 W/m 8,4 km/h (2 Bft) 100,00 %
29.04.2016 20:36 7,4 C 7,2 C 5,6 C 94 % 15 lf 1014,4 hPa 0,0 l/m 2 min 0 min 23 W/m 10,5 km/h (2 Bft) 95,65 %
29.04.2016 20:38 7,4 C 7,2 C 5,6 C 94 % 15 lf 1014,4 hPa 0,0 l/m 2 min 0 min 19 W/m 14,6 km/h (3 Bft) 100,00 %
29.04.2016 20:40 7,4 C 7,2 C 5,6 C 94 % 15 lf 1014,4 hPa 0,0 l/m 0 min 0 min 18 W/m 14,6 km/h (3 Bft) 95,74 %
29.04.2016 20:42 7,4 C 7,2 C 5,6 C 94 % 15 lf 1014,4 hPa 0,0 l/m 0 min 0 min 14 W/m 14,6 km/h (3 Bft) 100,00 %
29.04.2016 20:44 7,4 C 7,2 C 5,6 C 94 % 15 lf 1014,4 hPa 0,0 l/m 0 min 0 min 10 W/m 18,8 km/h (3 Bft) 100,00 %
29.04.2016 20:46 7,4 C 7,2 C 5,6 C 94 % 15 lf 1014,3 hPa 0,0 l/m 0 min 0 min 7 W/m 14,6 km/h (3 Bft) 97,87 %
29.04.2016 20:48 7,4 C 7,2 C 5,6 C 94 % 15 lf 1014,4 hPa 0,0 l/m 0 min 0 min 3 W/m 16,7 km/h (3 Bft) 97,83 %
29.04.2016 20:50 7,4 C 7,2 C 5,6 C 94 % 15 lf 1014,3 hPa 0,0 l/m 0 min 0 min 0 W/m 16,7 km/h (3 Bft) 93,62 %
29.04.2016 20:52 7,4 C 7,2 C 5,6 C 94 % 15 lf 1014,3 hPa 0,0 l/m 0 min 0 min 0 W/m 14,6 km/h (3 Bft) 95,74 %
29.04.2016 20:54 7,3 C 7,2 C 5,6 C 94 % 15 lf 1014,4 hPa 0,0 l/m 0 min 2 min 0 W/m 23,0 km/h (4 Bft) 91,49 %
29.04.2016 20:56 7,3 C 7,2 C 5,6 C 94 % 15 lf 1014,4 hPa 0,0 l/m 0 min 0 min 0 W/m 10,5 km/h (2 Bft) 97,87 %
29.04.2016 20:58 7,3 C 7,2 C 5,6 C 94 % 15 lf 1014,4 hPa 0,0 l/m 0 min 0 min 0 W/m 10,5 km/h (2 Bft) 97,87 %
29.04.2016 21:00 7,3 C 7,2 C 5,6 C 94 % 15 lf 1014,4 hPa 0,0 l/m 0 min 0 min 0 W/m 10,5 km/h (2 Bft) 97,83 %
29.04.2016 21:02 7,4 C 7,2 C 5,6 C 94 % 15 lf 1014,5 hPa 0,0 l/m 0 min 0 min 0 W/m 8,4 km/h (2 Bft) 97,87 %
29.04.2016 21:04 7,3 C 7,2 C 5,6 C 94 % 15 lf 1014,5 hPa 0,0 l/m 0 min 0 min 0 W/m 8,4 km/h (2 Bft) 95,74 %
29.04.2016 21:06 7,3 C 7,2 C 5,6 C 94 % 15 lf 1014,5 hPa 0,0 l/m 0 min 0 min 0 W/m 10,5 km/h (2 Bft) 93,62 %
29.04.2016 21:08 7,3 C 7,2 C 5,6 C 94 % 15 lf 1014,6 hPa 0,0 l/m 0 min 0 min 0 W/m 12,6 km/h (3 Bft) 95,74 %
29.04.2016 21:10 7,3 C 7,2 C 5,6 C 94 % 15 lf 1014,6 hPa 0,0 l/m 0 min 0 min 0 W/m 12,6 km/h (3 Bft) 95,74 %
29.04.2016 21:12 7,3 C 7,2 C 5,6 C 94 % 15 lf 1014,6 hPa 0,0 l/m 0 min 0 min 0 W/m 12,6 km/h (3 Bft) 97,83 %
29.04.2016 21:14 7,3 C 7,2 C 5,6 C 94 % 15 lf 1014,6 hPa 0,0 l/m 0 min 0 min 0 W/m 8,4 km/h (2 Bft) 95,74 %
29.04.2016 21:16 7,3 C 7,2 C 5,6 C 94 % 15 lf 1014,7 hPa 0,0 l/m 0 min 0 min 0 W/m 10,5 km/h (2 Bft) 97,87 %
29.04.2016 21:18 7,3 C 7,2 C 5,6 C 94 % 15 lf 1014,7 hPa 0,0 l/m 0 min 0 min 0 W/m 12,6 km/h (3 Bft) 97,87 %
29.04.2016 21:20 7,3 C 7,2 C 5,6 C 94 % 15 lf 1014,7 hPa 0,0 l/m 0 min 0 min 0 W/m 10,5 km/h (2 Bft) 93,62 %
29.04.2016 21:22 7,3 C 7,2 C 5,6 C 94 % 15 lf 1014,6 hPa 0,0 l/m 0 min 0 min 0 W/m 10,5 km/h (2 Bft) 95,65 %
29.04.2016 21:24 7,3 C 7,2 C 5,6 C 94 % 15 lf 1014,6 hPa 0,0 l/m 0 min 0 min 0 W/m 14,6 km/h (3 Bft) 91,49 %
29.04.2016 21:26 7,3 C 7,2 C 5,6 C 94 % 15 lf 1014,6 hPa 0,0 l/m 0 min 0 min 0 W/m 12,6 km/h (3 Bft) 93,62 %
29.04.2016 21:28 7,3 C 7,2 C 5,6 C 94 % 15 lf 1014,6 hPa 0,0 l/m 0 min 0 min 0 W/m 8,4 km/h (2 Bft) 95,74 %
29.04.2016 21:30 7,3 C 7,2 C 5,6 C 94 % 15 lf 1014,6 hPa 0,0 l/m 0 min 0 min 0 W/m 10,5 km/h (2 Bft) 95,74 %
29.04.2016 21:32 7,3 C 7,2 C 5,6 C 94 % 15 lf 1014,6 hPa 0,0 l/m 0 min 0 min 0 W/m 12,6 km/h (3 Bft) 91,49 %
29.04.2016 21:34 7,3 C 7,2 C 5,6 C 94 % 15 lf 1014,7 hPa 0,0 l/m 0 min 0 min 0 W/m 10,5 km/h (2 Bft) 91,30 %
29.04.2016 21:36 7,3 C 7,2 C 5,6 C 94 % 15 lf 1014,7 hPa 0,0 l/m 0 min 2 min 0 W/m 14,6 km/h (3 Bft) 93,62 %
29.04.2016 21:38 7,3 C 7,2 C 5,6 C 94 % 15 lf 1014,7 hPa 0,0 l/m 0 min 0 min 0 W/m 14,6 km/h (3 Bft) 87,23 %
29.04.2016 21:40 7,3 C 7,2 C 5,6 C 94 % 15 lf 1014,7 hPa 0,0 l/m 0 min 0 min 0 W/m 12,6 km/h (3 Bft) 89,36 %
29.04.2016 21:42 7,3 C 7,2 C 5,6 C 94 % 15 lf 1014,7 hPa 0,0 l/m 0 min 0 min 0 W/m 16,7 km/h (3 Bft) 91,49 %
29.04.2016 21:44 7,3 C 7,2 C 5,6 C 94 % 15 lf 1014,7 hPa 0,0 l/m 0 min 0 min 0 W/m 10,5 km/h (2 Bft) 91,49 %
29.04.2016 21:46 7,3 C 7,2 C 5,6 C 94 % 15 lf 1014,7 hPa 0,0 l/m 0 min 0 min 0 W/m 12,6 km/h (3 Bft) 93,48 %
29.04.2016 21:48 7,3 C 7,2 C 5,6 C 95 % 15 lf 1014,7 hPa 0,0 l/m 0 min 0 min 0 W/m 10,5 km/h (2 Bft) 93,62 %
29.04.2016 21:50 7,3 C 7,2 C 5,6 C 95 % 15 lf 1014,7 hPa 0,0 l/m 0 min 0 min 0 W/m 8,4 km/h (2 Bft) 93,62 %
29.04.2016 21:52 7,3 C 7,2 C 5,6 C 95 % 15 lf 1014,7 hPa 0,0 l/m 0 min 0 min 0 W/m 14,6 km/h (3 Bft) 89,36 %
29.04.2016 21:54 7,3 C 7,2 C 5,6 C 95 % 15 lf 1014,7 hPa 0,0 l/m 0 min 0 min 0 W/m 12,6 km/h (3 Bft) 93,62 %
29.04.2016 21:56 7,3 C 7,2 C 5,6 C 95 % 15 lf 1014,7 hPa 0,0 l/m 0 min 0 min 0 W/m 12,6 km/h (3 Bft) 93,62 %
29.04.2016 21:58 7,3 C 7,2 C 5,6 C 95 % 15 lf 1014,7 hPa 0,0 l/m 0 min 0 min 0 W/m 10,5 km/h (2 Bft) 93,48 %
29.04.2016 22:00 7,3 C 7,2 C 5,6 C 95 % 15 lf 1014,7 hPa 0,0 l/m 0 min 0 min 0 W/m 8,4 km/h (2 Bft) 89,36 %
29.04.2016 22:02 7,3 C 7,2 C 5,6 C 95 % 15 lf 1014,7 hPa 0,0 l/m 0 min 0 min 0 W/m 6,3 km/h (2 Bft) 89,36 %
29.04.2016 22:04 7,3 C 7,2 C 5,6 C 95 % 15 lf 1014,7 hPa 0,0 l/m 0 min 0 min 0 W/m 6,3 km/h (2 Bft) 91,49 %
29.04.2016 22:06 7,3 C 7,2 C 5,6 C 95 % 15 lf 1014,7 hPa 0,0 l/m 0 min 0 min 0 W/m 12,6 km/h (3 Bft) 95,74 %
29.04.2016 22:08 7,3 C 6,7 C 5,6 C 95 % 15 lf 1014,7 hPa 0,0 l/m 0 min 0 min 0 W/m 12,6 km/h (3 Bft) 95,65 %
29.04.2016 22:10 7,3 C 7,2 C 5,6 C 95 % 15 lf 1014,7 hPa 0,0 l/m 0 min 0 min 0 W/m 12,6 km/h (3 Bft) 93,62 %
29.04.2016 22:12 7,3 C 7,2 C 5,6 C 95 % 15 lf 1014,7 hPa 0,0 l/m 0 min 0 min 0 W/m 14,6 km/h (3 Bft) 93,62 %
29.04.2016 22:14 7,3 C 7,2 C 5,6 C 95 % 15 lf 1014,8 hPa 0,0 l/m 0 min 0 min 0 W/m 12,6 km/h (3 Bft) 93,62 %
29.04.2016 22:16 7,2 C 7,2 C 5,6 C 95 % 15 lf 1014,8 hPa 0,0 l/m 0 min 0 min 0 W/m 14,6 km/h (3 Bft) 95,74 %
29.04.2016 22:18 7,2 C 7,2 C 5,6 C 95 % 15 lf 1014,8 hPa 0,0 l/m 0 min 0 min 0 W/m 12,6 km/h (3 Bft) 93,62 %
29.04.2016 22:20 7,2 C 7,2 C 5,6 C 95 % 15 lf 1014,7 hPa 0,0 l/m 0 min 0 min 0 W/m 12,6 km/h (3 Bft) 95,65 %
29.04.2016 22:22 7,2 C 7,2 C 5,6 C 95 % 15 lf 1014,7 hPa 0,0 l/m 0 min 0 min 0 W/m 6,3 km/h (2 Bft) 97,87 %
29.04.2016 22:24 7,2 C 7,2 C 5,6 C 95 % 15 lf 1014,8 hPa 0,0 l/m 0 min 0 min 0 W/m 12,6 km/h (3 Bft) 97,87 %
29.04.2016 22:26 7,2 C 7,2 C 5,6 C 94 % 15 lf 1014,8 hPa 0,0 l/m 0 min 0 min 0 W/m 10,5 km/h (2 Bft) 95,74 %
29.04.2016 22:28 7,2 C 7,2 C 5,6 C 95 % 15 lf 1014,8 hPa 0,0 l/m 0 min 0 min 0 W/m 8,4 km/h (2 Bft) 95,74 %
29.04.2016 22:30 7,2 C 7,2 C 5,6 C 95 % 15 lf 1014,7 hPa 0,0 l/m 0 min 0 min 0 W/m 10,5 km/h (2 Bft) 95,74 %
29.04.2016 22:32 7,2 C 7,2 C 5,6 C 95 % 15 lf 1014,7 hPa 0,0 l/m 0 min 0 min 0 W/m 10,5 km/h (2 Bft) 97,83 %
29.04.2016 22:34 7,2 C 7,2 C 5,6 C 94 % 15 lf 1014,7 hPa 0,0 l/m 0 min 0 min 0 W/m 12,6 km/h (3 Bft) 97,87 %
29.04.2016 22:36 7,2 C 7,2 C 5,6 C 94 % 15 lf 1014,7 hPa 0,0 l/m 0 min 0 min 0 W/m 14,6 km/h (3 Bft) 93,62 %
29.04.2016 22:38 7,2 C 7,2 C 5,6 C 94 % 15 lf 1014,7 hPa 0,0 l/m 0 min 0 min 0 W/m 8,4 km/h (2 Bft) 97,87 %
29.04.2016 22:40 7,2 C 7,2 C 5,6 C 94 % 15 lf 1014,7 hPa 0,0 l/m 0 min 0 min 0 W/m 12,6 km/h (3 Bft) 100,00 %
29.04.2016 22:42 7,2 C 7,2 C 5,6 C 94 % 15 lf 1014,7 hPa 0,0 l/m 0 min 0 min 0 W/m 10,5 km/h (2 Bft) 97,87 %
29.04.2016 22:44 7,2 C 7,2 C 5,6 C 94 % 15 lf 1014,7 hPa 0,0 l/m 0 min 0 min 0 W/m 12,6 km/h (3 Bft) 100,00 %
29.04.2016 22:46 7,2 C 7,2 C 5,6 C 94 % 15 lf 1014,7 hPa 0,0 l/m 0 min 0 min 0 W/m 8,4 km/h (2 Bft) 100,00 %
29.04.2016 22:48 7,2 C 7,2 C 5,6 C 94 % 15 lf 1014,6 hPa 0,0 l/m 0 min 0 min 0 W/m 10,5 km/h (2 Bft) 97,87 %
29.04.2016 22:50 7,2 C 7,2 C 5,6 C 94 % 14 lf 1014,6 hPa 0,0 l/m 0 min 0 min 0 W/m 12,6 km/h (3 Bft) 100,00 %
29.04.2016 22:52 7,2 C 7,2 C 5,6 C 94 % 14 lf 1014,6 hPa 0,0 l/m 0 min 0 min 0 W/m 10,5 km/h (2 Bft) 100,00 %
29.04.2016 22:54 7,2 C 7,2 C 5,6 C 94 % 14 lf 1014,7 hPa 0,0 l/m 0 min 0 min 0 W/m 18,8 km/h (3 Bft) 97,87 %
29.04.2016 22:56 7,2 C 7,2 C 5,6 C 94 % 14 lf 1014,7 hPa 0,0 l/m 0 min 0 min 0 W/m 10,5 km/h (2 Bft) 97,83 %
29.04.2016 22:58 7,2 C 7,2 C 5,6 C 94 % 14 lf 1014,7 hPa 0,0 l/m 0 min 0 min 0 W/m 16,7 km/h (3 Bft) 97,87 %
29.04.2016 23:00 7,2 C 7,2 C 5,6 C 94 % 13 lf 1014,6 hPa 0,0 l/m 0 min 0 min 0 W/m 14,6 km/h (3 Bft) 97,87 %
29.04.2016 23:02 7,2 C 7,2 C 5,6 C 94 % 13 lf 1014,6 hPa 0,2 l/m 0 min 0 min 0 W/m 10,5 km/h (2 Bft) 95,74 %
29.04.2016 23:04 7,2 C 7,2 C 5,6 C 94 % 13 lf 1014,6 hPa 0,0 l/m 0 min 0 min 0 W/m 16,7 km/h (3 Bft) 95,74 %
29.04.2016 23:06 7,2 C 7,2 C 5,6 C 94 % 13 lf 1014,6 hPa 0,0 l/m 0 min 0 min 0 W/m 12,6 km/h (3 Bft) 97,87 %
29.04.2016 23:08 7,2 C 7,2 C 5,6 C 94 % 12 lf 1014,6 hPa 0,0 l/m 0 min 0 min 0 W/m 14,6 km/h (3 Bft) 100,00 %
29.04.2016 23:10 7,2 C 7,2 C 5,6 C 94 % 12 lf 1014,6 hPa 0,0 l/m 0 min 0 min 0 W/m 8,4 km/h (2 Bft) 97,87 %
29.04.2016 23:12 7,2 C 7,2 C 5,6 C 94 % 12 lf 1014,5 hPa 0,0 l/m 0 min 0 min 0 W/m 14,6 km/h (3 Bft) 97,87 %
29.04.2016 23:14 7,2 C 7,2 C 5,6 C 94 % 11 lf 1014,5 hPa 0,0 l/m 0 min 0 min 0 W/m 16,7 km/h (3 Bft) 100,00 %
29.04.2016 23:16 7,2 C 7,2 C 5,6 C 94 % 11 lf 1014,6 hPa 0,0 l/m 0 min 0 min 0 W/m 16,7 km/h (3 Bft) 95,74 %
29.04.2016 23:18 7,2 C 7,2 C 5,6 C 94 % 10 lf 1014,5 hPa 0,0 l/m 0 min 0 min 0 W/m 12,6 km/h (3 Bft) 97,87 %
29.04.2016 23:20 7,2 C 7,2 C 5,6 C 94 % 10 lf 1014,6 hPa 0,0 l/m 0 min 0 min 0 W/m 16,7 km/h (3 Bft) 100,00 %
29.04.2016 23:22 7,2 C 7,2 C 5,6 C 94 % 10 lf 1014,6 hPa 0,0 l/m 0 min 0 min 0 W/m 14,6 km/h (3 Bft) 97,87 %
29.04.2016 23:24 7,2 C 7,2 C 5,6 C 94 % 9 lf 1014,6 hPa 0,0 l/m 0 min 0 min 0 W/m 10,5 km/h (2 Bft) 95,74 %
29.04.2016 23:26 7,2 C 7,2 C 5,6 C 94 % 9 lf 1014,6 hPa 0,0 l/m 0 min 0 min 0 W/m 14,6 km/h (3 Bft) 95,74 %
29.04.2016 23:28 7,2 C 7,2 C 5,6 C 94 % 8 lf 1014,6 hPa 0,0 l/m 0 min 0 min 0 W/m 12,6 km/h (3 Bft) 97,87 %
29.04.2016 23:30 7,2 C 6,7 C 5,6 C 94 % 7 lf 1014,6 hPa 0,0 l/m 0 min 0 min 0 W/m 10,5 km/h (2 Bft) 97,83 %
29.04.2016 23:32 7,2 C 6,7 C 5,6 C 94 % 7 lf 1014,6 hPa 0,0 l/m 0 min 0 min 0 W/m 12,6 km/h (3 Bft) 97,87 %
29.04.2016 23:34 7,2 C 6,7 C 5,0 C 94 % 7 lf 1014,6 hPa 0,0 l/m 0 min 0 min 0 W/m 10,5 km/h (2 Bft) 100,00 %
29.04.2016 23:36 7,2 C 6,7 C 5,0 C 94 % 7 lf 1014,6 hPa 0,0 l/m 0 min 0 min 0 W/m 6,3 km/h (2 Bft) 97,87 %
29.04.2016 23:38 7,2 C 6,7 C 5,0 C 94 % 7 lf 1014,6 hPa 0,0 l/m 0 min 0 min 0 W/m 10,5 km/h (2 Bft) 95,74 %
29.04.2016 23:40 7,2 C 6,7 C 5,0 C 94 % 6 lf 1014,6 hPa 0,0 l/m 0 min 0 min 0 W/m 10,5 km/h (2 Bft) 97,87 %
29.04.2016 23:42 7,2 C 6,7 C 5,0 C 94 % 6 lf 1014,6 hPa 0,0 l/m 0 min 0 min 0 W/m 12,6 km/h (3 Bft) 95,65 %
29.04.2016 23:44 7,2 C 6,7 C 5,0 C 94 % 6 lf 1014,7 hPa 0,0 l/m 0 min 0 min 0 W/m 12,6 km/h (3 Bft) 91,49 %
29.04.2016 23:46 7,2 C 6,7 C 5,0 C 94 % 5 lf 1014,7 hPa 0,0 l/m 0 min 0 min 0 W/m 10,5 km/h (2 Bft) 97,87 %
29.04.2016 23:48 7,2 C 6,7 C 5,0 C 94 % 5 lf 1014,7 hPa 0,0 l/m 0 min 0 min 0 W/m 10,5 km/h (2 Bft) 97,87 %
29.04.2016 23:50 7,1 C 6,7 C 5,0 C 94 % 5 lf 1014,7 hPa 0,0 l/m 0 min 0 min 0 W/m 10,5 km/h (2 Bft) 97,87 %
29.04.2016 23:52 7,1 C 6,7 C 5,0 C 94 % 4 lf 1014,6 hPa 0,0 l/m 0 min 0 min 0 W/m 8,4 km/h (2 Bft) 95,74 %
29.04.2016 23:54 7,1 C 6,7 C 5,0 C 94 % 4 lf 1014,6 hPa 0,0 l/m 0 min 0 min 0 W/m 8,4 km/h (2 Bft) 93,48 %
29.04.2016 23:56 7,1 C 6,7 C 5,0 C 94 % 4 lf 1014,6 hPa 0,0 l/m 0 min 0 min 0 W/m 8,4 km/h (2 Bft) 97,87 %
29.04.2016 23:58 7,1 C 6,7 C 5,0 C 94 % 4 lf 1014,6 hPa 0,0 l/m 0 min 0 min 0 W/m 10,5 km/h (2 Bft) 97,87 %
_ Min-Zeit 02:52 00:46 02:26 12:24 03:00 06:06 - - - - 13:50 16:01
Minimum _ 2,7 C 2,8 C 1,1 C 62 % 0 lf 1012,2 hPa - - - - 4,2 km/h (1 Bft) 86,96 %
_ Max-Zeit 12:50 09:42 12:18 02:20 17:22 22:14 18:30 06:44 10:10 09:42 11:40 00:02
Maximum _ 12,2 C 15,6 C 12,2 C 95 % 15 lf 1014,8 hPa 0,2 l/m 2 min 2 min 657 W/m 50,2 km/h
W-SW (7 Bft)
100,00 %
Durchschnitt _ 7,1 C 7,7 C 5,9 C 85 % 5 lf 1013,5 hPa #0,4 l/m #4:06 h #3:14 h 180 W/m 17,3 km/h (3 Bft) 96,09 %
© 2016 W. Hausmann